Time,TemperatureF,DewpointF,PressureIn,WindDirection,WindDirectionDegrees,WindSpeedMPH,WindSpeedGustMPH,Humidity,HourlyPrecipIn,Conditions,Clouds,dailyrainin,SolarRadiationWatts/m^2,SoftwareType,DateUTC
2013-04-17 00:01:00,42.9,32.3,29.96,East,88,0.0,0.0,66,0.00,CLR,FEW,0.00,0.0,WeatherDisplay:10.37,2013-04-17 07:01:00,
2013-04-17 00:04:00,42.9,32.3,29.96,East,92,0.0,0.0,66,0.00,CLR,FEW,0.00,0.0,WeatherDisplay:10.37,2013-04-17 07:04:00,
2013-04-17 00:05:00,42.9,32.3,29.96,East,90,0.0,0.0,66,0.00,CLR,FEW,0.00,0.0,WeatherDisplay:10.37,2013-04-17 07:05:00,
2013-04-17 00:06:00,42.9,32.3,29.96,East,94,0.0,0.0,66,0.00,CLR,FEW,0.00,0.0,WeatherDisplay:10.37,2013-04-17 07:06:00,
2013-04-17 00:07:00,43.1,32.1,29.96,ENE,76,0.0,0.0,65,0.00,CLR,FEW,0.00,0.0,WeatherDisplay:10.37,2013-04-17 07:07:00,
2013-04-17 00:08:00,43.1,32.1,29.96,ENE,76,0.0,0.0,65,0.00,CLR,FEW,0.00,0.0,WeatherDisplay:10.37,2013-04-17 07:08:00,
2013-04-17 00:09:00,43.1,32.1,29.96,NNE,30,0.0,0.0,65,0.00,CLR,FEW,0.00,0.0,WeatherDisplay:10.37,2013-04-17 07:09:00,
2013-04-17 00:11:00,42.9,31.9,29.96,NNE,31,0.0,0.0,65,0.00,CLR,FEW,0.00,0.0,WeatherDisplay:10.37,2013-04-17 07:11:00,
2013-04-17 00:12:00,42.9,32.3,29.96,NNE,31,0.0,0.0,66,0.00,CLR,FEW,0.00,0.0,WeatherDisplay:10.37,2013-04-17 07:12:00,
2013-04-17 00:13:00,42.9,31.9,29.96,NE,34,0.0,0.0,65,0.00,CLR,FEW,0.00,0.0,WeatherDisplay:10.37,2013-04-17 07:13:00,
2013-04-17 00:14:00,42.9,31.9,29.96,NE,34,0.0,0.0,65,0.00,CLR,FEW,0.00,0.0,WeatherDisplay:10.37,2013-04-17 07:14:00,
2013-04-17 00:15:00,42.9,31.9,29.96,NE,52,0.0,0.0,65,0.00,CLR,FEW,0.00,0.0,WeatherDisplay:10.37,2013-04-17 07:15:00,
2013-04-17 00:18:00,43.1,32.1,29.96,NE,52,0.0,0.0,65,0.00,CLR,FEW,0.00,0.0,WeatherDisplay:10.37,2013-04-17 07:18:00,
2013-04-17 00:19:00,43.1,32.1,29.96,NE,53,0.0,0.0,65,0.00,CLR,FEW,0.00,0.0,WeatherDisplay:10.37,2013-04-17 07:19:00,
2013-04-17 00:21:00,43.2,31.8,29.96,NE,53,0.0,0.0,64,0.00,CLR,FEW,0.00,0.0,WeatherDisplay:10.37,2013-04-17 07:21:00,
2013-04-17 00:24:00,43.2,31.8,29.96,NE,53,0.0,0.0,64,0.00,CLR,FEW,0.00,0.0,WeatherDisplay:10.37,2013-04-17 07:24:00,
2013-04-17 00:25:00,43.3,31.9,29.96,NE,53,0.0,0.0,64,0.00,CLR,FEW,0.00,0.0,WeatherDisplay:10.37,2013-04-17 07:25:00,
2013-04-17 00:26:00,43.3,31.9,29.96,NE,53,0.0,0.0,64,0.00,CLR,FEW,0.00,0.0,WeatherDisplay:10.37,2013-04-17 07:26:00,
2013-04-17 00:27:00,43.3,31.9,29.96,NE,53,0.0,0.0,64,0.00,CLR,FEW,0.00,0.0,WeatherDisplay:10.37,2013-04-17 07:27:00,
2013-04-17 00:29:00,43.2,31.8,29.96,NE,53,0.0,0.0,64,0.00,CLR,FEW,0.00,0.0,WeatherDisplay:10.37,2013-04-17 07:29:00,
2013-04-17 00:30:00,43.1,31.7,29.96,NE,53,0.0,0.0,64,0.00,CLR,FEW,0.00,0.0,WeatherDisplay:10.37,2013-04-17 07:30:00,
2013-04-17 00:31:00,43.1,31.7,29.96,NE,53,0.0,0.0,64,0.00,CLR,FEW,0.00,0.0,WeatherDisplay:10.37,2013-04-17 07:31:00,
2013-04-17 00:33:00,42.9,31.6,29.96,NE,53,0.0,0.0,64,0.00,CLR,FEW,0.00,0.0,WeatherDisplay:10.37,2013-04-17 07:33:00,
2013-04-17 00:34:00,42.9,31.6,29.96,NE,53,0.0,0.0,64,0.00,CLR,FEW,0.00,0.0,WeatherDisplay:10.37,2013-04-17 07:34:00,
2013-04-17 00:36:00,43.2,31.8,29.96,East,101,0.0,0.0,64,0.00,CLR,FEW,0.00,0.0,WeatherDisplay:10.37,2013-04-17 07:36:00,
2013-04-17 00:38:00,43.2,31.8,29.96,East,86,0.0,0.0,64,0.00,CLR,FEW,0.00,0.0,WeatherDisplay:10.37,2013-04-17 07:38:00,
2013-04-17 00:39:00,43.3,31.9,29.96,East,86,0.0,0.0,64,0.00,CLR,FEW,0.00,0.0,WeatherDisplay:10.37,2013-04-17 07:39:00,
2013-04-17 00:40:00,43.3,31.9,29.96,East,86,0.0,0.0,64,0.00,CLR,FEW,0.00,0.0,WeatherDisplay:10.37,2013-04-17 07:40:00,
2013-04-17 00:42:00,43.2,31.4,29.96,East,86,0.0,0.0,63,0.00,CLR,FEW,0.00,0.0,WeatherDisplay:10.37,2013-04-17 07:42:00,
2013-04-17 00:44:00,43.1,31.4,29.96,ENE,65,0.0,0.0,63,0.00,CLR,FEW,0.00,0.0,WeatherDisplay:10.37,2013-04-17 07:44:00,
2013-04-17 00:45:00,43.1,31.4,29.96,East,85,0.0,0.0,63,0.00,CLR,FEW,0.00,0.0,WeatherDisplay:10.37,2013-04-17 07:45:00,
2013-04-17 00:46:00,42.9,31.6,29.97,ENE,67,0.0,0.0,64,0.00,CLR,FEW,0.00,0.0,WeatherDisplay:10.37,2013-04-17 07:46:00,
2013-04-17 00:47:00,42.9,31.6,29.97,ENE,67,0.0,0.0,64,0.00,CLR,FEW,0.00,0.0,WeatherDisplay:10.37,2013-04-17 07:47:00,
2013-04-17 00:50:00,42.9,31.6,29.97,ENE,67,0.0,0.0,64,0.00,CLR,FEW,0.00,0.0,WeatherDisplay:10.37,2013-04-17 07:50:00,
2013-04-17 00:51:00,42.9,31.6,29.97,ENE,67,0.0,0.0,64,0.00,CLR,FEW,0.00,0.0,WeatherDisplay:10.37,2013-04-17 07:51:00,
2013-04-17 00:52:00,42.9,31.6,29.97,ENE,67,0.0,0.0,64,0.00,CLR,FEW,0.00,0.0,WeatherDisplay:10.37,2013-04-17 07:52:00,
2013-04-17 00:53:00,42.9,31.6,29.97,ENE,67,0.0,0.0,64,0.00,CLR,FEW,0.00,0.0,WeatherDisplay:10.37,2013-04-17 07:53:00,
2013-04-17 00:55:00,42.9,31.6,29.97,ENE,66,0.0,0.0,64,0.00,CLR,FEW,0.00,0.0,WeatherDisplay:10.37,2013-04-17 07:55:00,
2013-04-17 00:56:00,42.9,31.6,29.97,ENE,67,0.0,0.0,64,0.00,CLR,FEW,0.00,0.0,WeatherDisplay:10.37,2013-04-17 07:56:00,
2013-04-17 00:57:00,42.9,31.6,29.97,ENE,66,0.0,0.0,64,0.00,CLR,FEW,0.00,0.0,WeatherDisplay:10.37,2013-04-17 07:57:00,
2013-04-17 00:59:00,42.8,31.5,29.97,ENE,66,0.0,0.0,64,0.00,CLR,FEW,0.00,0.0,WeatherDisplay:10.37,2013-04-17 07:59:00,
2013-04-17 01:01:00,42.8,31.5,29.97,ENE,66,0.0,0.0,64,0.00,CLR,FEW,0.00,0.0,WeatherDisplay:10.37,2013-04-17 08:01:00,
2013-04-17 01:02:00,42.8,31.5,29.97,ENE,66,0.0,0.0,64,0.00,CLR,FEW,0.00,0.0,WeatherDisplay:10.37,2013-04-17 08:02:00,
2013-04-17 01:03:00,42.8,31.5,29.97,ENE,66,0.0,0.0,64,0.00,CLR,FEW,0.00,0.0,WeatherDisplay:10.37,2013-04-17 08:03:00,
2013-04-17 01:05:00,42.8,31.5,29.97,ENE,66,0.0,0.0,64,0.00,CLR,FEW,0.00,0.0,WeatherDisplay:10.37,2013-04-17 08:05:00,
2013-04-17 01:06:00,42.9,31.6,29.97,ENE,66,0.0,0.0,64,0.00,CLR,FEW,0.00,0.0,WeatherDisplay:10.37,2013-04-17 08:06:00,
2013-04-17 01:07:00,42.9,31.6,29.97,ENE,66,0.0,0.0,64,0.00,CLR,FEW,0.00,0.0,WeatherDisplay:10.37,2013-04-17 08:07:00,
2013-04-17 01:08:00,42.9,31.6,29.97,ENE,66,0.0,0.0,64,0.00,CLR,FEW,0.00,0.0,WeatherDisplay:10.37,2013-04-17 08:08:00,
2013-04-17 01:10:00,43.1,31.7,29.97,ENE,66,0.0,0.0,64,0.00,CLR,FEW,0.00,0.0,WeatherDisplay:10.37,2013-04-17 08:10:00,
2013-04-17 01:12:00,43.1,31.7,29.97,ENE,66,0.0,0.0,64,0.00,CLR,FEW,0.00,0.0,WeatherDisplay:10.37,2013-04-17 08:12:00,
2013-04-17 01:13:00,43.1,31.7,29.97,ENE,66,0.0,0.0,64,0.00,CLR,FEW,0.00,0.0,WeatherDisplay:10.37,2013-04-17 08:13:00,
2013-04-17 01:16:00,43.1,31.4,29.97,ENE,66,0.0,0.0,63,0.00,CLR,FEW,0.00,0.0,WeatherDisplay:10.37,2013-04-17 08:16:00,
2013-04-17 01:17:00,43.1,31.4,29.97,ENE,66,0.0,0.0,63,0.00,CLR,FEW,0.00,0.0,WeatherDisplay:10.37,2013-04-17 08:17:00,
2013-04-17 01:18:00,43.1,31.4,29.97,ENE,66,0.0,0.0,63,0.00,CLR,FEW,0.00,0.0,WeatherDisplay:10.37,2013-04-17 08:18:00,
2013-04-17 01:19:00,43.1,31.4,29.97,ENE,66,0.0,0.0,63,0.00,CLR,FEW,0.00,0.0,WeatherDisplay:10.37,2013-04-17 08:19:00,
2013-04-17 01:20:00,43.1,31.4,29.97,ENE,66,0.0,0.0,63,0.00,CLR,FEW,0.00,0.0,WeatherDisplay:10.37,2013-04-17 08:20:00,
2013-04-17 01:21:00,42.9,31.2,29.97,ENE,66,0.0,0.0,63,0.00,CLR,FEW,0.00,0.0,WeatherDisplay:10.37,2013-04-17 08:21:00,
2013-04-17 01:23:00,42.8,31.5,29.97,ENE,68,0.0,0.0,64,0.00,CLR,FEW,0.00,0.0,WeatherDisplay:10.37,2013-04-17 08:23:00,
2013-04-17 01:24:00,42.6,31.3,29.97,ENE,68,0.0,0.0,64,0.00,CLR,FEW,0.00,0.0,WeatherDisplay:10.37,2013-04-17 08:24:00,
2013-04-17 01:25:00,42.8,31.4,29.97,ENE,67,0.0,0.0,64,0.00,CLR,FEW,0.00,0.0,WeatherDisplay:10.37,2013-04-17 08:25:00,
2013-04-17 01:27:00,42.3,31.4,29.97,ENE,68,0.0,0.0,65,0.00,CLR,FEW,0.00,0.0,WeatherDisplay:10.37,2013-04-17 08:27:00,
2013-04-17 01:30:00,42.1,31.6,29.97,East,92,0.0,0.0,66,0.00,CLR,FEW,0.00,0.0,WeatherDisplay:10.37,2013-04-17 08:30:00,
2013-04-17 01:32:00,42.1,31.6,29.97,East,94,0.0,0.0,66,0.00,CLR,FEW,0.00,0.0,WeatherDisplay:10.37,2013-04-17 08:32:00,
2013-04-17 01:33:00,42.1,31.6,29.97,East,94,0.0,0.0,66,0.00,CLR,FEW,0.00,0.0,WeatherDisplay:10.37,2013-04-17 08:33:00,
2013-04-17 01:35:00,41.9,31.4,29.97,East,94,0.0,0.0,66,0.00,CLR,FEW,0.00,0.0,WeatherDisplay:10.37,2013-04-17 08:35:00,
2013-04-17 01:36:00,41.8,31.3,29.97,East,94,0.0,0.0,66,0.00,CLR,FEW,0.00,0.0,WeatherDisplay:10.37,2013-04-17 08:36:00,
2013-04-17 01:38:00,41.5,31.0,29.97,East,94,0.0,0.0,66,0.00,CLR,FEW,0.00,0.0,WeatherDisplay:10.37,2013-04-17 08:38:00,
2013-04-17 01:39:00,41.3,31.2,29.97,East,94,0.0,0.0,67,0.00,CLR,FEW,0.00,0.0,WeatherDisplay:10.37,2013-04-17 08:39:00,
2013-04-17 01:40:00,41.2,31.1,29.97,East,94,0.0,0.0,67,0.00,CLR,FEW,0.00,0.0,WeatherDisplay:10.37,2013-04-17 08:40:00,
2013-04-17 01:42:00,41.1,31.3,29.97,East,94,0.0,0.0,68,0.00,CLR,FEW,0.00,0.0,WeatherDisplay:10.37,2013-04-17 08:42:00,
2013-04-17 01:43:00,40.9,31.1,29.97,East,94,0.0,0.0,68,0.00,CLR,FEW,0.00,0.0,WeatherDisplay:10.37,2013-04-17 08:43:00,
2013-04-17 01:45:00,40.9,31.1,29.97,East,94,0.0,0.0,68,0.00,CLR,FEW,0.00,0.0,WeatherDisplay:10.37,2013-04-17 08:45:00,
2013-04-17 01:47:00,40.9,31.1,29.97,East,94,0.0,0.0,68,0.00,CLR,FEW,0.00,0.0,WeatherDisplay:10.37,2013-04-17 08:47:00,
2013-04-17 01:48:00,41.1,31.3,29.97,East,93,0.0,0.0,68,0.00,CLR,FEW,0.00,0.0,WeatherDisplay:10.37,2013-04-17 08:48:00,
2013-04-17 01:49:00,41.1,31.3,29.97,East,93,0.0,0.0,68,0.00,CLR,FEW,0.00,0.0,WeatherDisplay:10.37,2013-04-17 08:49:00,
2013-04-17 01:51:00,41.2,31.4,29.97,East,93,0.0,0.0,68,0.00,CLR,FEW,0.00,0.0,WeatherDisplay:10.37,2013-04-17 08:51:00,
2013-04-17 01:52:00,41.2,31.4,29.97,East,90,0.0,0.0,68,0.00,CLR,FEW,0.00,0.0,WeatherDisplay:10.37,2013-04-17 08:52:00,
2013-04-17 01:53:00,41.3,31.5,29.97,East,91,0.0,0.0,68,0.00,CLR,FEW,0.00,0.0,WeatherDisplay:10.37,2013-04-17 08:53:00,
2013-04-17 01:54:00,41.3,31.5,29.97,East,91,0.0,0.0,68,0.00,CLR,FEW,0.00,0.0,WeatherDisplay:10.37,2013-04-17 08:54:00,
2013-04-17 01:56:00,41.6,31.4,29.97,ENE,71,0.0,0.0,67,0.00,CLR,FEW,0.00,0.0,WeatherDisplay:10.37,2013-04-17 08:56:00,
2013-04-17 01:57:00,41.8,31.6,29.97,ENE,76,0.0,0.0,67,0.00,CLR,FEW,0.00,0.0,WeatherDisplay:10.37,2013-04-17 08:57:00,
2013-04-17 02:00:00,42.1,31.9,29.97,East,91,0.0,0.0,67,0.00,CLR,FEW,0.00,0.0,WeatherDisplay:10.37,2013-04-17 09:00:00,
2013-04-17 02:03:00,41.9,31.4,29.97,East,92,0.0,0.0,66,0.00,CLR,FEW,0.00,0.0,WeatherDisplay:10.37,2013-04-17 09:03:00,
2013-04-17 02:04:00,41.8,31.6,29.97,East,92,0.0,0.0,67,0.00,CLR,FEW,0.00,0.0,WeatherDisplay:10.37,2013-04-17 09:04:00,
2013-04-17 02:06:00,41.9,31.7,29.97,East,92,0.0,0.0,67,0.00,CLR,FEW,0.00,0.0,WeatherDisplay:10.37,2013-04-17 09:06:00,
2013-04-17 02:08:00,41.8,31.6,29.97,ENE,74,0.0,0.0,67,0.00,CLR,FEW,0.00,0.0,WeatherDisplay:10.37,2013-04-17 09:08:00,
2013-04-17 02:09:00,41.8,32.0,29.97,ENE,76,0.0,0.0,68,0.00,CLR,FEW,0.00,0.0,WeatherDisplay:10.37,2013-04-17 09:09:00,
2013-04-17 02:13:00,41.9,31.7,29.97,ENE,70,0.0,0.0,67,0.00,CLR,FEW,0.00,0.0,WeatherDisplay:10.37,2013-04-17 09:13:00,
2013-04-17 02:14:00,41.9,31.7,29.97,ENE,69,0.0,0.0,67,0.00,CLR,FEW,0.00,0.0,WeatherDisplay:10.37,2013-04-17 09:14:00,
2013-04-17 02:15:00,42.1,31.9,29.97,ENE,70,0.0,0.0,67,0.00,CLR,FEW,0.00,0.0,WeatherDisplay:10.37,2013-04-17 09:15:00,
2013-04-17 02:17:00,42.1,31.9,29.98,ENE,71,0.0,0.0,67,0.00,CLR,FEW,0.00,0.0,WeatherDisplay:10.37,2013-04-17 09:17:00,
2013-04-17 02:18:00,42.1,31.9,29.98,East,88,0.0,0.0,67,0.00,CLR,FEW,0.00,0.0,WeatherDisplay:10.37,2013-04-17 09:18:00,
2013-04-17 02:19:00,42.1,31.6,29.98,East,90,0.0,0.0,66,0.00,CLR,FEW,0.00,0.0,WeatherDisplay:10.37,2013-04-17 09:19:00,
2013-04-17 02:20:00,42.1,31.6,29.98,East,90,0.0,0.0,66,0.00,CLR,FEW,0.00,0.0,WeatherDisplay:10.37,2013-04-17 09:20:00,
2013-04-17 02:21:00,42.1,31.6,29.98,East,90,0.0,0.0,66,0.00,CLR,FEW,0.00,0.0,WeatherDisplay:10.37,2013-04-17 09:21:00,
2013-04-17 02:23:00,42.1,31.6,29.98,East,90,0.0,0.0,66,0.00,CLR,FEW,0.00,0.0,WeatherDisplay:10.37,2013-04-17 09:23:00,
2013-04-17 02:25:00,41.8,31.3,29.98,East,90,0.0,0.0,66,0.00,CLR,FEW,0.00,0.0,WeatherDisplay:10.37,2013-04-17 09:25:00,
2013-04-17 02:28:00,41.5,31.4,29.98,East,90,0.0,0.0,67,0.00,CLR,FEW,0.00,0.0,WeatherDisplay:10.37,2013-04-17 09:28:00,
2013-04-17 02:29:00,41.5,31.4,29.98,East,91,0.0,0.0,67,0.00,CLR,FEW,0.00,0.0,WeatherDisplay:10.37,2013-04-17 09:29:00,
2013-04-17 02:30:00,41.5,31.4,29.98,East,91,0.0,0.0,67,0.00,CLR,FEW,0.00,0.0,WeatherDisplay:10.37,2013-04-17 09:30:00,
2013-04-17 02:32:00,41.3,31.2,29.98,East,91,0.0,0.0,67,0.00,CLR,FEW,0.00,0.0,WeatherDisplay:10.37,2013-04-17 09:32:00,
2013-04-17 02:33:00,41.2,31.1,29.98,East,91,0.0,0.0,67,0.00,CLR,FEW,0.00,0.0,WeatherDisplay:10.37,2013-04-17 09:33:00,
2013-04-17 02:34:00,41.2,31.1,29.98,East,91,0.0,0.0,67,0.00,CLR,FEW,0.00,0.0,WeatherDisplay:10.37,2013-04-17 09:34:00,
2013-04-17 02:35:00,41.2,31.4,29.98,East,91,0.0,0.0,68,0.00,CLR,FEW,0.00,0.0,WeatherDisplay:10.37,2013-04-17 09:35:00,
2013-04-17 02:36:00,41.1,31.3,29.98,East,91,0.0,0.0,68,0.00,CLR,FEW,0.00,0.0,WeatherDisplay:10.37,2013-04-17 09:36:00,
2013-04-17 02:38:00,41.1,31.3,29.98,East,91,0.0,0.0,68,0.00,CLR,FEW,0.00,0.0,WeatherDisplay:10.37,2013-04-17 09:38:00,
2013-04-17 02:39:00,41.1,31.3,29.98,East,91,0.0,0.0,68,0.00,CLR,FEW,0.00,0.0,WeatherDisplay:10.37,2013-04-17 09:39:00,
2013-04-17 02:41:00,40.9,31.1,29.98,East,91,0.0,0.0,68,0.00,CLR,FEW,0.00,0.0,WeatherDisplay:10.37,2013-04-17 09:41:00,
2013-04-17 02:45:00,40.6,31.2,29.98,East,91,0.0,0.0,69,0.00,CLR,FEW,0.00,0.0,WeatherDisplay:10.37,2013-04-17 09:45:00,
2013-04-17 02:46:00,40.9,31.5,29.98,East,92,0.0,0.0,69,0.00,CLR,FEW,0.00,0.0,WeatherDisplay:10.37,2013-04-17 09:46:00,
2013-04-17 02:47:00,40.9,31.1,29.98,East,92,0.0,0.0,68,0.00,CLR,FEW,0.00,0.0,WeatherDisplay:10.37,2013-04-17 09:47:00,
2013-04-17 02:49:00,41.1,31.3,29.98,East,87,0.0,0.0,68,0.00,CLR,FEW,0.00,0.0,WeatherDisplay:10.37,2013-04-17 09:49:00,
2013-04-17 02:51:00,41.1,31.3,29.98,East,88,0.0,0.0,68,0.00,CLR,FEW,0.00,0.0,WeatherDisplay:10.37,2013-04-17 09:51:00,
2013-04-17 02:54:00,41.1,31.3,29.98,ENE,59,0.0,0.0,68,0.00,CLR,FEW,0.00,0.0,WeatherDisplay:10.37,2013-04-17 09:54:00,
2013-04-17 02:56:00,41.1,31.3,29.98,ENE,74,0.0,0.0,68,0.00,CLR,FEW,0.00,0.0,WeatherDisplay:10.37,2013-04-17 09:56:00,
2013-04-17 02:57:00,41.1,31.3,29.98,ENE,74,0.0,0.0,68,0.00,CLR,FEW,0.00,0.0,WeatherDisplay:10.37,2013-04-17 09:57:00,
2013-04-17 02:59:00,40.9,31.1,29.98,ENE,73,0.0,0.0,68,0.00,CLR,FEW,0.00,0.0,WeatherDisplay:10.37,2013-04-17 09:59:00,
2013-04-17 03:00:00,40.9,31.1,29.98,ENE,73,0.0,0.0,68,0.00,CLR,FEW,0.00,0.0,WeatherDisplay:10.37,2013-04-17 10:00:00,
2013-04-17 03:01:00,40.9,31.1,29.97,ENE,73,0.0,0.0,68,0.00,CLR,FEW,0.00,0.0,WeatherDisplay:10.37,2013-04-17 10:01:00,
2013-04-17 03:03:00,40.9,31.1,29.97,NE,34,0.0,0.0,68,0.00,CLR,FEW,0.00,0.0,WeatherDisplay:10.37,2013-04-17 10:03:00,
2013-04-17 03:05:00,40.9,31.1,29.97,NE,54,0.0,0.0,68,0.00,CLR,FEW,0.00,0.0,WeatherDisplay:10.37,2013-04-17 10:05:00,
2013-04-17 03:06:00,40.9,31.1,29.97,NE,34,0.0,0.0,68,0.00,CLR,FEW,0.00,0.0,WeatherDisplay:10.37,2013-04-17 10:06:00,
2013-04-17 03:08:00,41.1,31.3,29.97,NE,34,0.0,0.0,68,0.00,CLR,FEW,0.00,0.0,WeatherDisplay:10.37,2013-04-17 10:08:00,
2013-04-17 03:09:00,41.1,31.3,29.97,NE,34,0.0,0.0,68,0.00,CLR,FEW,0.00,0.0,WeatherDisplay:10.37,2013-04-17 10:09:00,
2013-04-17 03:11:00,41.1,31.3,29.97,NE,34,0.0,0.0,68,0.00,CLR,FEW,0.00,0.0,WeatherDisplay:10.37,2013-04-17 10:11:00,
2013-04-17 03:14:00,41.2,31.1,29.97,NE,34,0.0,0.0,67,0.00,CLR,FEW,0.00,0.0,WeatherDisplay:10.37,2013-04-17 10:14:00,
2013-04-17 03:15:00,41.2,31.1,29.97,NE,34,0.0,0.0,67,0.00,CLR,FEW,0.00,0.0,WeatherDisplay:10.37,2013-04-17 10:15:00,
2013-04-17 03:16:00,41.2,31.1,29.98,NE,34,0.0,0.0,67,0.00,CLR,FEW,0.00,0.0,WeatherDisplay:10.37,2013-04-17 10:16:00,
2013-04-17 03:19:00,41.3,31.2,29.98,NE,34,0.0,0.0,67,0.00,CLR,FEW,0.00,0.0,WeatherDisplay:10.37,2013-04-17 10:19:00,
2013-04-17 03:21:00,41.3,31.2,29.98,NE,35,0.0,0.0,67,0.00,CLR,FEW,0.00,0.0,WeatherDisplay:10.37,2013-04-17 10:21:00,
2013-04-17 03:23:00,41.3,30.8,29.98,NE,38,0.0,0.0,66,0.00,CLR,FEW,0.00,0.0,WeatherDisplay:10.37,2013-04-17 10:23:00,
2013-04-17 03:24:00,41.2,30.7,29.98,NE,41,0.0,0.0,66,0.00,CLR,FEW,0.00,0.0,WeatherDisplay:10.37,2013-04-17 10:24:00,
2013-04-17 03:25:00,41.2,30.7,29.98,ENE,76,0.0,0.0,66,0.00,CLR,FEW,0.00,0.0,WeatherDisplay:10.37,2013-04-17 10:25:00,
2013-04-17 03:26:00,41.2,30.7,29.98,ESE,117,0.0,0.0,66,0.00,CLR,FEW,0.00,0.0,WeatherDisplay:10.37,2013-04-17 10:26:00,
2013-04-17 03:29:00,41.1,30.6,29.98,East,95,0.0,0.0,66,0.00,CLR,FEW,0.00,0.0,WeatherDisplay:10.37,2013-04-17 10:29:00,
2013-04-17 03:30:00,41.1,30.6,29.98,ENE,76,0.0,0.0,66,0.00,CLR,FEW,0.00,0.0,WeatherDisplay:10.37,2013-04-17 10:30:00,
2013-04-17 03:32:00,40.9,30.4,29.98,East,96,0.0,0.0,66,0.00,CLR,FEW,0.00,0.0,WeatherDisplay:10.37,2013-04-17 10:32:00,
2013-04-17 03:33:00,40.8,30.3,29.98,East,94,0.0,0.0,66,0.00,CLR,FEW,0.00,0.0,WeatherDisplay:10.37,2013-04-17 10:33:00,
2013-04-17 03:35:00,40.8,30.3,29.98,East,88,0.0,0.0,66,0.00,CLR,FEW,0.00,0.0,WeatherDisplay:10.37,2013-04-17 10:35:00,
2013-04-17 03:36:00,40.8,30.3,29.98,East,90,0.0,0.0,66,0.00,CLR,FEW,0.00,0.0,WeatherDisplay:10.37,2013-04-17 10:36:00,
2013-04-17 03:37:00,40.6,30.5,29.98,East,90,0.0,0.0,67,0.00,CLR,FEW,0.00,0.0,WeatherDisplay:10.37,2013-04-17 10:37:00,
2013-04-17 03:38:00,40.6,30.5,29.98,East,90,0.0,0.0,67,0.00,CLR,FEW,0.00,0.0,WeatherDisplay:10.37,2013-04-17 10:38:00,
2013-04-17 03:39:00,40.6,30.1,29.98,East,90,0.0,0.0,66,0.00,CLR,FEW,0.00,0.0,WeatherDisplay:10.37,2013-04-17 10:39:00,
2013-04-17 03:41:00,40.6,30.1,29.98,East,91,0.0,0.0,66,0.00,CLR,FEW,0.00,0.0,WeatherDisplay:10.37,2013-04-17 10:41:00,
2013-04-17 03:42:00,40.6,30.1,29.98,East,91,0.0,0.0,66,0.00,CLR,FEW,0.00,0.0,WeatherDisplay:10.37,2013-04-17 10:42:00,
2013-04-17 03:44:00,40.6,30.1,29.98,East,91,0.0,0.0,66,0.00,CLR,FEW,0.00,0.0,WeatherDisplay:10.37,2013-04-17 10:44:00,
2013-04-17 03:45:00,40.6,30.1,29.98,East,92,0.0,0.0,66,0.00,CLR,FEW,0.00,0.0,WeatherDisplay:10.37,2013-04-17 10:45:00,
2013-04-17 03:47:00,40.5,30.0,29.98,East,92,0.0,0.0,66,0.00,CLR,FEW,0.00,0.0,WeatherDisplay:10.37,2013-04-17 10:47:00,
2013-04-17 03:48:00,40.5,30.4,29.98,East,93,0.0,0.0,67,0.00,CLR,FEW,0.00,0.0,WeatherDisplay:10.37,2013-04-17 10:48:00,
2013-04-17 03:49:00,40.3,30.2,29.98,East,93,0.0,0.0,67,0.00,CLR,FEW,0.00,0.0,WeatherDisplay:10.37,2013-04-17 10:49:00,
2013-04-17 03:51:00,40.3,30.2,29.98,East,93,0.0,0.0,67,0.00,CLR,FEW,0.00,0.0,WeatherDisplay:10.37,2013-04-17 10:51:00,
2013-04-17 03:52:00,40.3,30.2,29.98,SE,124,0.0,0.0,67,0.00,CLR,FEW,0.00,0.0,WeatherDisplay:10.37,2013-04-17 10:52:00,
2013-04-17 03:53:00,40.3,30.2,29.98,SE,124,0.0,0.0,67,0.00,CLR,FEW,0.00,0.0,WeatherDisplay:10.37,2013-04-17 10:53:00,
2013-04-17 03:54:00,40.3,30.2,29.98,SE,124,0.0,0.0,67,0.00,CLR,FEW,0.00,0.0,WeatherDisplay:10.37,2013-04-17 10:54:00,
2013-04-17 03:56:00,40.3,30.2,29.98,SE,127,0.0,0.0,67,0.00,CLR,FEW,0.00,0.0,WeatherDisplay:10.37,2013-04-17 10:56:00,
2013-04-17 03:58:00,40.3,30.2,29.98,SE,126,0.0,0.0,67,0.00,CLR,FEW,0.00,0.0,WeatherDisplay:10.37,2013-04-17 10:58:00,
2013-04-17 03:59:00,40.3,30.2,29.98,SE,126,0.0,0.0,67,0.00,CLR,FEW,0.00,0.0,WeatherDisplay:10.37,2013-04-17 10:59:00,
2013-04-17 04:01:00,40.3,30.2,29.98,ESE,111,0.0,0.0,67,0.00,CLR,FEW,0.00,0.0,WeatherDisplay:10.37,2013-04-17 11:01:00,
2013-04-17 04:03:00,40.3,30.2,29.98,ESE,113,0.0,0.0,67,0.00,CLR,FEW,0.00,0.0,WeatherDisplay:10.37,2013-04-17 11:03:00,
2013-04-17 04:05:00,40.3,30.2,29.98,ESE,113,0.0,0.0,67,0.00,CLR,FEW,0.00,0.0,WeatherDisplay:10.37,2013-04-17 11:05:00,
2013-04-17 04:06:00,40.3,30.2,29.98,ESE,113,0.0,0.0,67,0.00,CLR,FEW,0.00,0.0,WeatherDisplay:10.37,2013-04-17 11:06:00,
2013-04-17 04:10:00,40.5,30.4,29.98,ESE,111,0.0,0.0,67,0.00,CLR,FEW,0.00,0.0,WeatherDisplay:10.37,2013-04-17 11:10:00,
2013-04-17 04:11:00,40.5,30.4,29.98,ESE,109,0.0,0.0,67,0.00,CLR,FEW,0.00,0.0,WeatherDisplay:10.37,2013-04-17 11:11:00,
2013-04-17 04:12:00,40.5,30.4,29.98,ESE,109,0.0,0.0,67,0.00,CLR,FEW,0.00,0.0,WeatherDisplay:10.37,2013-04-17 11:12:00,
2013-04-17 04:13:00,40.5,30.4,29.98,ESE,109,0.0,0.0,67,0.00,CLR,FEW,0.00,0.0,WeatherDisplay:10.37,2013-04-17 11:13:00,
2013-04-17 04:16:00,40.6,30.5,29.98,ENE,69,0.0,0.0,67,0.00,CLR,FEW,0.00,0.0,WeatherDisplay:10.37,2013-04-17 11:16:00,
2013-04-17 04:17:00,40.6,30.5,29.98,ENE,68,0.0,0.0,67,0.00,CLR,FEW,0.00,0.0,WeatherDisplay:10.37,2013-04-17 11:17:00,
2013-04-17 04:18:00,40.8,30.7,29.98,ENE,69,0.0,0.0,67,0.00,CLR,FEW,0.00,0.0,WeatherDisplay:10.37,2013-04-17 11:18:00,
2013-04-17 04:19:00,40.8,30.7,29.98,ENE,69,0.0,0.0,67,0.00,CLR,FEW,0.00,0.0,WeatherDisplay:10.37,2013-04-17 11:19:00,
2013-04-17 04:21:00,41.1,30.6,29.98,ENE,57,0.0,0.0,66,0.00,CLR,FEW,0.00,0.0,WeatherDisplay:10.37,2013-04-17 11:21:00,
2013-04-17 04:23:00,41.2,30.7,29.98,ENE,57,0.0,0.0,66,0.00,CLR,FEW,0.00,0.0,WeatherDisplay:10.37,2013-04-17 11:23:00,
2013-04-17 04:24:00,41.2,30.7,29.98,ENE,57,0.0,0.0,66,0.00,CLR,FEW,0.00,0.0,WeatherDisplay:10.37,2013-04-17 11:24:00,
2013-04-17 04:27:00,41.3,30.4,29.98,ENE,59,0.0,0.0,65,0.00,CLR,FEW,0.00,0.0,WeatherDisplay:10.37,2013-04-17 11:27:00,
2013-04-17 04:28:00,41.3,30.4,29.98,ENE,61,0.0,0.0,65,0.00,CLR,FEW,0.00,0.0,WeatherDisplay:10.37,2013-04-17 11:28:00,
2013-04-17 04:29:00,41.5,30.6,29.98,ENE,61,0.0,0.0,65,0.00,CLR,FEW,0.00,0.0,WeatherDisplay:10.37,2013-04-17 11:29:00,
2013-04-17 04:31:00,41.5,30.6,29.98,ENE,61,0.0,0.0,65,0.00,CLR,FEW,0.00,0.0,WeatherDisplay:10.37,2013-04-17 11:31:00,
2013-04-17 04:32:00,41.3,30.4,29.98,ENE,61,0.0,0.0,65,0.00,CLR,FEW,0.00,0.0,WeatherDisplay:10.37,2013-04-17 11:32:00,
2013-04-17 04:33:00,41.3,30.4,29.98,ENE,61,0.0,0.0,65,0.00,CLR,FEW,0.00,0.0,WeatherDisplay:10.37,2013-04-17 11:33:00,
2013-04-17 04:35:00,41.2,30.3,29.98,ENE,61,0.0,0.0,65,0.00,CLR,FEW,0.00,0.0,WeatherDisplay:10.37,2013-04-17 11:35:00,
2013-04-17 04:37:00,41.1,30.2,29.98,East,92,0.0,0.0,65,0.00,CLR,FEW,0.00,0.0,WeatherDisplay:10.37,2013-04-17 11:37:00,
2013-04-17 04:38:00,40.9,30.0,29.98,East,97,0.0,0.0,65,0.00,CLR,FEW,0.00,0.0,WeatherDisplay:10.37,2013-04-17 11:38:00,
2013-04-17 04:41:00,40.8,29.9,29.98,East,97,0.0,0.0,65,0.00,CLR,FEW,0.00,0.0,WeatherDisplay:10.37,2013-04-17 11:41:00,
2013-04-17 04:42:00,40.6,29.7,29.98,East,96,0.0,0.0,65,0.00,CLR,FEW,0.00,0.0,WeatherDisplay:10.37,2013-04-17 11:42:00,
2013-04-17 04:43:00,40.6,29.7,29.98,East,92,0.0,0.0,65,0.00,CLR,FEW,0.00,0.0,WeatherDisplay:10.37,2013-04-17 11:43:00,
2013-04-17 04:47:00,40.8,29.9,29.98,East,95,0.0,0.0,65,0.00,CLR,FEW,0.00,0.0,WeatherDisplay:10.37,2013-04-17 11:47:00,
2013-04-17 04:48:00,40.8,29.9,29.98,East,97,0.0,0.0,65,0.00,CLR,FEW,0.00,0.0,WeatherDisplay:10.37,2013-04-17 11:48:00,
2013-04-17 04:49:00,40.8,29.9,29.98,East,97,0.0,0.0,65,0.00,CLR,FEW,0.00,0.0,WeatherDisplay:10.37,2013-04-17 11:49:00,
2013-04-17 04:50:00,40.8,29.9,29.98,East,97,0.0,0.0,65,0.00,CLR,FEW,0.00,0.0,WeatherDisplay:10.37,2013-04-17 11:50:00,
2013-04-17 04:53:00,40.8,29.9,29.98,East,98,0.0,0.0,65,0.00,CLR,FEW,0.00,0.0,WeatherDisplay:10.37,2013-04-17 11:53:00,
2013-04-17 04:54:00,40.6,29.7,29.98,East,98,0.0,0.0,65,0.00,CLR,FEW,0.00,0.0,WeatherDisplay:10.37,2013-04-17 11:54:00,
2013-04-17 04:55:00,40.6,29.7,29.98,East,98,0.0,0.0,65,0.00,CLR,FEW,0.00,0.0,WeatherDisplay:10.37,2013-04-17 11:55:00,
2013-04-17 04:56:00,40.6,29.7,29.98,East,98,0.0,0.0,65,0.00,CLR,FEW,0.00,0.0,WeatherDisplay:10.37,2013-04-17 11:56:00,
2013-04-17 04:58:00,40.6,29.7,29.98,East,98,0.0,0.0,65,0.00,CLR,FEW,0.00,0.0,WeatherDisplay:10.37,2013-04-17 11:58:00,
2013-04-17 05:00:00,40.8,29.9,29.98,ENE,76,0.0,0.0,65,0.00,CLR,FEW,0.00,0.0,WeatherDisplay:10.37,2013-04-17 12:00:00,
2013-04-17 05:01:00,40.8,29.9,29.98,ENE,76,0.0,0.0,65,0.00,CLR,FEW,0.00,0.0,WeatherDisplay:10.37,2013-04-17 12:01:00,
2013-04-17 05:02:00,40.8,29.9,29.98,ENE,76,0.0,0.0,65,0.00,CLR,FEW,0.00,0.0,WeatherDisplay:10.37,2013-04-17 12:02:00,
2013-04-17 05:03:00,40.8,29.9,29.98,ENE,76,0.0,0.0,65,0.00,CLR,FEW,0.00,0.0,WeatherDisplay:10.37,2013-04-17 12:03:00,
2013-04-17 05:04:00,40.8,29.9,29.98,ENE,77,0.0,0.0,65,0.00,CLR,FEW,0.00,0.0,WeatherDisplay:10.37,2013-04-17 12:04:00,
2013-04-17 05:06:00,40.6,29.7,29.98,ENE,77,0.0,0.0,65,0.00,CLR,FEW,0.00,0.0,WeatherDisplay:10.37,2013-04-17 12:06:00,
2013-04-17 05:08:00,40.5,29.7,29.98,ENE,78,0.0,0.0,65,0.00,CLR,FEW,0.00,0.0,WeatherDisplay:10.37,2013-04-17 12:08:00,
2013-04-17 05:09:00,40.3,29.5,29.98,ENE,78,0.0,0.0,65,0.00,CLR,FEW,0.00,0.0,WeatherDisplay:10.37,2013-04-17 12:09:00,
2013-04-17 05:10:00,40.2,29.7,29.98,ENE,78,0.0,0.0,66,0.00,CLR,FEW,0.00,0.0,WeatherDisplay:10.37,2013-04-17 12:10:00,
2013-04-17 05:11:00,40.1,29.6,29.98,East,81,0.0,0.0,66,0.00,CLR,FEW,0.00,0.0,WeatherDisplay:10.37,2013-04-17 12:11:00,
2013-04-17 05:12:00,40.1,29.6,29.98,ESE,120,0.0,0.0,66,0.00,CLR,FEW,0.00,0.0,WeatherDisplay:10.37,2013-04-17 12:12:00,
2013-04-17 05:15:00,39.9,29.5,29.98,East,94,0.0,0.0,66,0.00,CLR,FEW,0.00,0.0,WeatherDisplay:10.37,2013-04-17 12:15:00,
2013-04-17 05:17:00,39.9,29.5,29.99,ESE,112,0.0,0.0,66,0.00,CLR,FEW,0.00,0.0,WeatherDisplay:10.37,2013-04-17 12:17:00,
2013-04-17 05:19:00,40.1,29.6,29.99,East,97,0.0,0.0,66,0.00,CLR,FEW,0.00,0.0,WeatherDisplay:10.37,2013-04-17 12:19:00,
2013-04-17 05:21:00,40.1,29.6,29.99,East,98,0.0,0.0,66,0.00,CLR,FEW,0.00,0.0,WeatherDisplay:10.37,2013-04-17 12:21:00,
2013-04-17 05:22:00,40.1,29.6,29.99,East,98,0.0,0.0,66,0.00,CLR,FEW,0.00,0.0,WeatherDisplay:10.37,2013-04-17 12:22:00,
2013-04-17 05:23:00,40.1,29.6,29.99,East,98,0.0,0.0,66,0.00,CLR,FEW,0.00,0.0,WeatherDisplay:10.37,2013-04-17 12:23:00,
2013-04-17 05:25:00,40.1,29.6,29.99,East,95,0.0,0.0,66,0.00,CLR,FEW,0.00,0.0,WeatherDisplay:10.37,2013-04-17 12:25:00,
2013-04-17 05:26:00,40.1,29.6,29.99,East,96,0.0,0.0,66,0.00,CLR,FEW,0.00,0.0,WeatherDisplay:10.37,2013-04-17 12:26:00,
2013-04-17 05:27:00,40.2,29.7,29.99,East,97,0.0,0.0,66,0.00,CLR,FEW,0.00,0.0,WeatherDisplay:10.37,2013-04-17 12:27:00,
2013-04-17 05:28:00,40.2,29.7,29.99,East,97,0.0,0.0,66,0.00,CLR,FEW,0.00,0.0,WeatherDisplay:10.37,2013-04-17 12:28:00,
2013-04-17 05:29:00,40.2,29.7,29.99,East,96,0.0,0.0,66,0.00,CLR,FEW,0.00,0.0,WeatherDisplay:10.37,2013-04-17 12:29:00,
2013-04-17 05:32:00,40.1,29.6,29.99,East,98,0.0,0.0,66,0.00,CLR,FEW,0.00,0.0,WeatherDisplay:10.37,2013-04-17 12:32:00,
2013-04-17 05:33:00,40.1,29.6,29.99,East,98,0.0,0.0,66,0.00,CLR,FEW,0.00,0.0,WeatherDisplay:10.37,2013-04-17 12:33:00,
2013-04-17 05:34:00,40.1,29.6,29.99,East,98,0.0,0.0,66,0.00,CLR,FEW,0.00,0.0,WeatherDisplay:10.37,2013-04-17 12:34:00,
2013-04-17 05:37:00,39.9,29.5,29.99,ENE,77,0.0,0.0,66,0.00,CLR,FEW,0.00,0.0,WeatherDisplay:10.37,2013-04-17 12:37:00,
2013-04-17 05:38:00,40.1,29.6,29.99,East,88,0.0,0.0,66,0.00,CLR,FEW,0.00,0.0,WeatherDisplay:10.37,2013-04-17 12:38:00,
2013-04-17 05:39:00,40.1,29.6,29.99,ENE,74,0.0,0.0,66,0.00,CLR,FEW,0.00,0.0,WeatherDisplay:10.37,2013-04-17 12:39:00,
2013-04-17 05:40:00,40.1,29.6,29.99,ENE,60,0.0,0.0,66,0.00,CLR,FEW,0.00,0.0,WeatherDisplay:10.37,2013-04-17 12:40:00,
2013-04-17 05:42:00,40.2,29.4,29.99,ENE,60,0.0,0.0,65,0.00,CLR,FEW,0.00,0.0,WeatherDisplay:10.37,2013-04-17 12:42:00,
2013-04-17 05:43:00,40.2,29.4,29.99,ENE,60,0.0,0.0,65,0.00,CLR,FEW,0.00,0.0,WeatherDisplay:10.37,2013-04-17 12:43:00,
2013-04-17 05:44:00,40.2,29.4,29.99,NNE,18,0.0,0.0,65,0.00,CLR,FEW,0.00,0.0,WeatherDisplay:10.37,2013-04-17 12:44:00,
2013-04-17 05:45:00,40.2,29.4,29.99,NNE,18,0.0,0.0,65,0.00,CLR,FEW,0.00,0.0,WeatherDisplay:10.37,2013-04-17 12:45:00,
2013-04-17 05:46:00,40.2,29.4,30.00,NE,44,0.0,0.0,65,0.00,CLR,FEW,0.00,0.0,WeatherDisplay:10.37,2013-04-17 12:46:00,
2013-04-17 05:47:00,40.2,29.4,30.00,NE,53,0.0,0.0,65,0.00,CLR,FEW,0.00,0.0,WeatherDisplay:10.37,2013-04-17 12:47:00,
2013-04-17 05:48:00,40.3,29.5,30.00,ENE,58,0.0,0.0,65,0.00,CLR,FEW,0.00,0.0,WeatherDisplay:10.37,2013-04-17 12:48:00,
2013-04-17 05:51:00,40.8,29.6,30.00,ESE,106,0.0,0.0,64,0.00,CLR,FEW,0.00,0.0,WeatherDisplay:10.37,2013-04-17 12:51:00,
2013-04-17 05:52:00,40.9,29.3,30.00,East,96,0.0,0.0,63,0.00,CLR,FEW,0.00,0.0,WeatherDisplay:10.37,2013-04-17 12:52:00,
2013-04-17 05:54:00,40.9,29.3,30.00,East,96,0.0,0.0,63,0.00,CLR,FEW,0.00,0.0,WeatherDisplay:10.37,2013-04-17 12:54:00,
2013-04-17 05:56:00,40.6,29.0,30.00,East,95,0.0,0.0,63,0.00,CLR,FEW,0.00,0.0,WeatherDisplay:10.37,2013-04-17 12:56:00,
2013-04-17 05:57:00,40.6,29.0,30.00,East,95,0.0,0.0,63,0.00,CLR,FEW,0.00,0.0,WeatherDisplay:10.37,2013-04-17 12:57:00,
2013-04-17 05:58:00,40.6,29.0,30.00,East,97,0.0,0.0,63,0.00,CLR,FEW,0.00,0.0,WeatherDisplay:10.37,2013-04-17 12:58:00,
2013-04-17 05:59:00,40.8,29.2,30.00,East,97,0.0,0.0,63,0.00,CLR,FEW,0.00,0.0,WeatherDisplay:10.37,2013-04-17 12:59:00,
2013-04-17 06:00:00,40.8,29.2,30.00,East,97,0.0,0.0,63,0.00,CLR,FEW,0.00,0.0,WeatherDisplay:10.37,2013-04-17 13:00:00,
2013-04-17 06:02:00,40.8,29.2,30.00,East,97,0.0,0.0,63,0.00,OVC,FEW,0.00,0.0,WeatherDisplay:10.37,2013-04-17 13:02:00,
2013-04-17 06:03:00,40.6,29.0,30.00,East,97,0.0,0.0,63,0.00,OVC,FEW,0.00,0.0,WeatherDisplay:10.37,2013-04-17 13:03:00,
2013-04-17 06:04:00,40.5,28.9,30.00,East,97,0.0,0.0,63,0.00,OVC,FEW,0.00,0.0,WeatherDisplay:10.37,2013-04-17 13:04:00,
2013-04-17 06:05:00,40.5,28.9,30.00,East,97,0.0,0.0,63,0.00,OVC,FEW,0.00,0.0,WeatherDisplay:10.37,2013-04-17 13:05:00,
2013-04-17 06:07:00,40.2,29.0,30.00,East,97,0.0,0.0,64,0.00,OVC,FEW,0.00,0.0,WeatherDisplay:10.37,2013-04-17 13:07:00,
2013-04-17 06:08:00,40.2,29.0,30.00,East,97,0.0,0.0,64,0.00,OVC,FEW,0.00,0.0,WeatherDisplay:10.37,2013-04-17 13:08:00,
2013-04-17 06:09:00,40.2,29.0,30.00,East,97,0.0,0.0,64,0.00,OVC,FEW,0.00,0.0,WeatherDisplay:10.37,2013-04-17 13:09:00,
2013-04-17 06:11:00,40.3,29.1,30.00,East,97,0.0,0.0,64,0.00,OVC,FEW,0.00,0.0,WeatherDisplay:10.37,2013-04-17 13:11:00,
2013-04-17 06:13:00,40.3,29.1,30.00,East,97,0.0,0.0,64,0.00,OVC,FEW,0.00,0.0,WeatherDisplay:10.37,2013-04-17 13:13:00,
2013-04-17 06:14:00,40.3,29.1,30.00,East,97,0.0,0.0,64,0.00,OVC,FEW,0.00,0.0,WeatherDisplay:10.37,2013-04-17 13:14:00,
2013-04-17 06:15:00,40.5,29.3,30.00,East,97,0.0,0.0,64,0.00,OVC,FEW,0.00,0.0,WeatherDisplay:10.37,2013-04-17 13:15:00,
2013-04-17 06:16:00,40.6,29.0,30.01,ENE,65,0.0,0.0,63,0.00,OVC,FEW,0.00,0.0,WeatherDisplay:10.37,2013-04-17 13:16:00,
2013-04-17 06:18:00,40.6,29.0,30.01,ENE,65,0.0,0.0,63,0.00,OVC,FEW,0.00,5.3,WeatherDisplay:10.37,2013-04-17 13:18:00,
2013-04-17 06:19:00,40.6,29.0,30.01,ENE,65,0.0,0.0,63,0.00,OVC,FEW,0.00,5.3,WeatherDisplay:10.37,2013-04-17 13:19:00,
2013-04-17 06:22:00,40.6,29.0,30.01,ENE,65,0.0,0.0,63,0.00,CLR,FEW,0.00,7.3,WeatherDisplay:10.37,2013-04-17 13:22:00,
2013-04-17 06:23:00,40.6,28.6,30.01,ENE,65,0.0,0.0,62,0.00,FEW,,0.00,7.3,WeatherDisplay:10.37,2013-04-17 13:23:00,
2013-04-17 06:24:00,40.6,28.6,30.01,ENE,65,0.0,0.0,62,0.00,SCT,FEW,0.00,7.3,WeatherDisplay:10.37,2013-04-17 13:24:00,
2013-04-17 06:27:00,40.6,28.6,30.01,ENE,65,0.0,0.0,62,0.00,BKN,FEW,0.00,9.4,WeatherDisplay:10.37,2013-04-17 13:27:00,
2013-04-17 06:28:00,40.6,28.6,30.01,ENE,65,0.0,0.0,62,0.00,BKN,FEW,0.00,9.4,WeatherDisplay:10.37,2013-04-17 13:28:00,
2013-04-17 06:29:00,40.6,28.6,30.01,ENE,65,0.0,0.0,62,0.00,BKN,FEW,0.00,11.6,WeatherDisplay:10.37,2013-04-17 13:29:00,
2013-04-17 06:30:00,40.6,28.6,30.01,ENE,65,0.0,0.0,62,0.00,BKN,FEW,0.00,11.6,WeatherDisplay:10.37,2013-04-17 13:30:00,
2013-04-17 06:34:00,40.3,28.3,30.01,ENE,65,0.0,0.0,62,0.00,BKN,FEW,0.00,12.6,WeatherDisplay:10.37,2013-04-17 13:34:00,
2013-04-17 06:35:00,40.3,28.3,30.01,ENE,65,0.0,0.0,62,0.00,BKN,FEW,0.00,12.6,WeatherDisplay:10.37,2013-04-17 13:35:00,
2013-04-17 06:36:00,40.3,28.3,30.01,ENE,65,0.0,0.0,62,0.00,BKN,FEW,0.00,12.6,WeatherDisplay:10.37,2013-04-17 13:36:00,
2013-04-17 06:39:00,40.3,28.3,30.01,ENE,65,0.0,0.0,62,0.00,BKN,FEW,0.00,14.7,WeatherDisplay:10.37,2013-04-17 13:39:00,
2013-04-17 06:40:00,40.5,28.5,30.01,ENE,65,0.0,0.0,62,0.00,BKN,FEW,0.00,14.7,WeatherDisplay:10.37,2013-04-17 13:40:00,
2013-04-17 06:41:00,40.5,28.5,30.01,ENE,65,0.0,0.0,62,0.00,BKN,FEW,0.00,14.7,WeatherDisplay:10.37,2013-04-17 13:41:00,
2013-04-17 06:45:00,40.5,28.1,30.01,ENE,65,0.0,0.0,61,0.00,BKN,FEW,0.00,18.9,WeatherDisplay:10.37,2013-04-17 13:45:00,
2013-04-17 06:46:00,40.5,28.5,30.01,ENE,65,0.0,0.0,62,0.00,BKN,FEW,0.00,19.9,WeatherDisplay:10.37,2013-04-17 13:46:00,
2013-04-17 06:48:00,40.5,28.5,30.01,ENE,65,0.0,0.0,62,0.00,BKN,FEW,0.00,27.3,WeatherDisplay:10.37,2013-04-17 13:48:00,
2013-04-17 06:51:00,40.8,28.4,30.01,ENE,66,0.0,0.0,61,0.00,BKN,FEW,0.00,33.6,WeatherDisplay:10.37,2013-04-17 13:51:00,
2013-04-17 06:52:00,40.8,28.4,30.01,ENE,66,0.0,0.0,61,0.00,BKN,FEW,0.00,33.6,WeatherDisplay:10.37,2013-04-17 13:52:00,
2013-04-17 06:53:00,40.9,28.5,30.01,ENE,66,0.0,0.0,61,0.00,BKN,FEW,0.00,34.6,WeatherDisplay:10.37,2013-04-17 13:53:00,
2013-04-17 06:57:00,41.2,28.4,30.01,East,96,0.0,0.0,60,0.00,SCT,FEW,0.00,53.5,WeatherDisplay:10.37,2013-04-17 13:57:00,
2013-04-17 06:58:00,41.2,28.4,30.01,East,97,0.0,0.0,60,0.00,SCT,FEW,0.00,53.5,WeatherDisplay:10.37,2013-04-17 13:58:00,
2013-04-17 06:59:00,41.2,28.4,30.01,East,97,0.0,0.0,60,0.00,SCT,FEW,0.00,58.8,WeatherDisplay:10.37,2013-04-17 13:59:00,
2013-04-17 07:03:00,41.5,28.6,30.02,East,97,0.0,0.0,60,0.00,SCT,FEW,0.00,72.5,WeatherDisplay:10.37,2013-04-17 14:03:00,
2013-04-17 07:04:00,41.6,28.7,30.02,ENE,71,0.0,0.0,60,0.00,SCT,FEW,0.00,73.5,WeatherDisplay:10.37,2013-04-17 14:04:00,
2013-04-17 07:05:00,41.9,28.6,30.02,East,95,0.0,0.0,59,0.00,SCT,FEW,0.00,75.6,WeatherDisplay:10.37,2013-04-17 14:05:00,
2013-04-17 07:07:00,42.2,28.5,30.02,East,98,0.0,0.0,58,0.00,SCT,FEW,0.00,80.8,WeatherDisplay:10.37,2013-04-17 14:07:00,
2013-04-17 07:08:00,42.3,28.6,30.02,East,99,0.0,0.0,58,0.00,SCT,FEW,0.00,88.2,WeatherDisplay:10.37,2013-04-17 14:08:00,
2013-04-17 07:09:00,42.3,28.6,30.02,East,98,0.0,0.0,58,0.00,SCT,FEW,0.00,88.2,WeatherDisplay:10.37,2013-04-17 14:09:00,
2013-04-17 07:10:00,42.5,28.8,30.02,East,98,0.0,0.0,58,0.00,SCT,FEW,0.00,94.5,WeatherDisplay:10.37,2013-04-17 14:10:00,
2013-04-17 07:11:00,42.5,28.8,30.02,East,98,0.0,0.0,58,0.00,SCT,FEW,0.00,95.5,WeatherDisplay:10.37,2013-04-17 14:11:00,
2013-04-17 07:13:00,42.6,28.8,30.02,East,98,0.0,0.0,58,0.00,FEW,,0.00,102.9,WeatherDisplay:10.37,2013-04-17 14:13:00,
2013-04-17 07:15:00,42.9,29.1,30.02,East,98,0.0,0.0,58,0.00,SCT,FEW,0.00,109.2,WeatherDisplay:10.37,2013-04-17 14:15:00,
2013-04-17 07:16:00,43.3,29.5,30.03,East,98,0.0,0.0,58,0.00,FEW,,0.00,114.5,WeatherDisplay:10.37,2013-04-17 14:16:00,
2013-04-17 07:17:00,43.5,29.3,30.03,East,98,0.0,0.0,57,0.00,FEW,,0.00,116.5,WeatherDisplay:10.37,2013-04-17 14:17:00,
2013-04-17 07:19:00,43.5,28.8,30.03,East,98,0.0,0.0,56,0.00,FEW,,0.00,129.2,WeatherDisplay:10.37,2013-04-17 14:19:00,
2013-04-17 07:20:00,43.5,28.8,30.03,East,98,0.0,0.0,56,0.00,FEW,FEW,0.00,129.2,WeatherDisplay:10.37,2013-04-17 14:20:00,
2013-04-17 07:21:00,43.5,28.8,30.03,East,98,0.0,0.0,56,0.00,FEW,,0.00,133.3,WeatherDisplay:10.37,2013-04-17 14:21:00,
2013-04-17 07:22:00,43.5,28.8,30.03,East,98,0.0,0.0,56,0.00,FEW,,0.00,136.5,WeatherDisplay:10.37,2013-04-17 14:22:00,
2013-04-17 07:23:00,43.5,28.8,30.03,East,98,0.0,0.0,56,0.00,FEW,,0.00,140.7,WeatherDisplay:10.37,2013-04-17 14:23:00,
2013-04-17 07:25:00,43.5,28.8,30.03,East,98,0.0,0.0,56,0.00,FEW,FEW,0.00,145.9,WeatherDisplay:10.37,2013-04-17 14:25:00,
2013-04-17 07:28:00,43.8,28.7,30.03,East,98,0.0,0.0,55,0.00,FEW,,0.00,156.4,WeatherDisplay:10.37,2013-04-17 14:28:00,
2013-04-17 07:29:00,43.8,29.1,30.03,East,98,0.0,0.0,56,0.00,FEW,,0.00,160.7,WeatherDisplay:10.37,2013-04-17 14:29:00,
2013-04-17 07:30:00,43.9,29.2,30.03,East,99,0.0,0.0,56,0.00,FEW,,0.00,162.8,WeatherDisplay:10.37,2013-04-17 14:30:00,
2013-04-17 07:33:00,44.2,28.6,30.03,SE,129,0.0,0.0,54,0.00,CLR,FEW,0.00,171.2,WeatherDisplay:10.37,2013-04-17 14:33:00,
2013-04-17 07:34:00,44.3,28.7,30.03,SE,129,0.0,0.0,54,0.00,CLR,FEW,0.00,177.4,WeatherDisplay:10.37,2013-04-17 14:34:00,
2013-04-17 07:36:00,44.5,28.4,30.03,SE,130,0.0,0.0,53,0.00,CLR,FEW,0.00,180.6,WeatherDisplay:10.37,2013-04-17 14:36:00,
2013-04-17 07:38:00,44.8,28.7,30.03,SE,130,0.0,0.0,53,0.00,CLR,FEW,0.00,186.9,WeatherDisplay:10.37,2013-04-17 14:38:00,
2013-04-17 07:39:00,44.9,28.8,30.03,SE,130,0.0,0.0,53,0.00,CLR,FEW,0.00,192.2,WeatherDisplay:10.37,2013-04-17 14:39:00,
2013-04-17 07:41:00,45.4,28.8,30.03,SE,130,0.0,0.0,52,0.00,CLR,FEW,0.00,199.5,WeatherDisplay:10.37,2013-04-17 14:41:00,
2013-04-17 07:43:00,45.7,28.6,30.03,SE,130,0.0,0.0,51,0.00,CLR,FEW,0.00,204.8,WeatherDisplay:10.37,2013-04-17 14:43:00,
2013-04-17 07:44:00,46.0,28.9,30.03,SE,130,0.0,0.0,51,0.00,CLR,FEW,0.00,210.0,WeatherDisplay:10.37,2013-04-17 14:44:00,
2013-04-17 07:45:00,45.9,28.8,30.03,SE,130,0.0,0.0,51,0.00,CLR,FEW,0.00,210.0,WeatherDisplay:10.37,2013-04-17 14:45:00,
2013-04-17 07:46:00,46.4,28.3,30.03,SE,130,0.0,0.0,49,0.00,CLR,FEW,0.00,219.4,WeatherDisplay:10.37,2013-04-17 14:46:00,
2013-04-17 07:50:00,47.0,28.8,30.03,SE,130,0.0,0.0,49,0.00,CLR,FEW,0.00,228.9,WeatherDisplay:10.37,2013-04-17 14:50:00,
2013-04-17 07:52:00,47.4,29.2,30.03,SE,130,0.0,0.0,49,0.00,CLR,FEW,0.00,240.4,WeatherDisplay:10.37,2013-04-17 14:52:00,
2013-04-17 07:53:00,47.6,29.4,30.03,SE,130,0.0,0.0,49,0.00,CLR,FEW,0.00,240.4,WeatherDisplay:10.37,2013-04-17 14:53:00,
2013-04-17 07:55:00,48.0,28.7,30.03,NE,36,0.0,0.0,47,0.00,CLR,FEW,0.00,248.8,WeatherDisplay:10.37,2013-04-17 14:55:00,
2013-04-17 07:56:00,48.2,28.9,30.03,NE,36,0.0,0.0,47,0.00,CLR,FEW,0.00,248.8,WeatherDisplay:10.37,2013-04-17 14:56:00,
2013-04-17 07:58:00,48.6,28.7,30.03,NE,36,0.0,0.0,46,0.00,CLR,FEW,0.00,258.3,WeatherDisplay:10.37,2013-04-17 14:58:00,
2013-04-17 07:59:00,48.8,28.4,30.03,NE,36,0.0,0.0,45,0.00,CLR,FEW,0.00,260.4,WeatherDisplay:10.37,2013-04-17 14:59:00,
2013-04-17 08:02:00,48.8,26.7,30.04,NE,36,0.0,0.0,42,0.00,CLR,FEW,0.00,270.9,WeatherDisplay:10.37,2013-04-17 15:02:00,
2013-04-17 08:04:00,49.2,27.1,30.04,NE,36,0.0,0.0,42,0.00,CLR,FEW,0.00,278.3,WeatherDisplay:10.37,2013-04-17 15:04:00,
2013-04-17 08:05:00,49.5,27.3,30.04,NE,36,0.0,0.0,42,0.00,CLR,FEW,0.00,284.6,WeatherDisplay:10.37,2013-04-17 15:05:00,
2013-04-17 08:07:00,49.8,26.4,30.04,NE,36,0.0,0.0,40,0.00,CLR,FEW,0.00,291.9,WeatherDisplay:10.37,2013-04-17 15:07:00,
2013-04-17 08:09:00,49.8,25.8,30.04,NE,36,0.0,0.0,39,0.00,CLR,FEW,0.00,297.1,WeatherDisplay:10.37,2013-04-17 15:09:00,
2013-04-17 08:10:00,49.9,25.9,30.04,NE,36,0.0,0.0,39,0.00,CLR,FEW,0.00,304.5,WeatherDisplay:10.37,2013-04-17 15:10:00,
2013-04-17 08:11:00,49.9,25.9,30.04,NE,36,0.0,0.0,39,0.00,CLR,FEW,0.00,304.5,WeatherDisplay:10.37,2013-04-17 15:11:00,
2013-04-17 08:12:00,50.2,26.2,30.04,NE,36,0.0,0.0,39,0.00,CLR,FEW,0.00,308.7,WeatherDisplay:10.37,2013-04-17 15:12:00,
2013-04-17 08:13:00,50.4,25.7,30.04,NE,36,0.0,0.0,38,0.00,CLR,FEW,0.00,313.9,WeatherDisplay:10.37,2013-04-17 15:13:00,
2013-04-17 08:15:00,50.6,25.9,30.04,NE,36,0.0,0.0,38,0.00,CLR,FEW,0.00,317.1,WeatherDisplay:10.37,2013-04-17 15:15:00,
2013-04-17 08:16:00,51.0,26.3,30.04,NE,36,0.0,0.0,38,0.00,CLR,FEW,0.00,321.3,WeatherDisplay:10.37,2013-04-17 15:16:00,
2013-04-17 08:17:00,51.1,26.3,30.04,NE,36,0.0,0.0,38,0.00,CLR,FEW,0.00,328.6,WeatherDisplay:10.37,2013-04-17 15:17:00,
2013-04-17 08:18:00,51.3,27.2,30.04,NE,36,0.0,0.0,39,0.00,CLR,FEW,0.00,328.6,WeatherDisplay:10.37,2013-04-17 15:18:00,
2013-04-17 08:20:00,51.4,26.6,30.04,NE,36,0.0,0.0,38,0.00,CLR,FEW,0.00,336.0,WeatherDisplay:10.37,2013-04-17 15:20:00,
2013-04-17 08:23:00,51.4,25.3,30.04,NE,36,0.0,0.0,36,0.00,CLR,FEW,0.00,348.6,WeatherDisplay:10.37,2013-04-17 15:23:00,
2013-04-17 08:25:00,51.4,26.6,30.04,NE,36,0.0,0.0,38,0.00,CLR,FEW,0.00,358.1,WeatherDisplay:10.37,2013-04-17 15:25:00,
2013-04-17 08:28:00,51.1,25.7,30.04,NE,36,0.0,0.0,37,0.00,CLR,FEW,0.00,369.6,WeatherDisplay:10.37,2013-04-17 15:28:00,
2013-04-17 08:30:00,51.0,25.6,30.04,NE,36,0.0,0.0,37,0.00,CLR,FEW,0.00,374.9,WeatherDisplay:10.37,2013-04-17 15:30:00,
2013-04-17 08:31:00,50.7,25.3,30.04,SSW,207,0.0,0.0,37,0.00,CLR,FEW,0.00,378.0,WeatherDisplay:10.37,2013-04-17 15:31:00,
2013-04-17 08:33:00,50.4,24.4,30.04,SSW,207,0.0,0.0,36,0.00,CLR,FEW,0.00,387.4,WeatherDisplay:10.37,2013-04-17 15:33:00,
2013-04-17 08:34:00,50.2,24.2,30.04,SSW,207,0.0,0.0,36,0.00,CLR,FEW,0.00,389.6,WeatherDisplay:10.37,2013-04-17 15:34:00,
2013-04-17 08:36:00,50.2,24.9,30.04,SSW,207,0.0,0.0,37,0.00,CLR,FEW,0.00,396.9,WeatherDisplay:10.37,2013-04-17 15:36:00,
2013-04-17 08:38:00,50.2,25.5,30.04,SSW,207,0.0,0.0,38,0.00,CLR,FEW,0.00,406.4,WeatherDisplay:10.37,2013-04-17 15:38:00,
2013-04-17 08:39:00,50.2,24.9,30.04,SSW,207,0.0,0.0,37,0.00,CLR,FEW,0.00,407.4,WeatherDisplay:10.37,2013-04-17 15:39:00,
2013-04-17 08:41:00,50.2,24.2,30.04,SSW,207,0.0,0.0,36,0.00,CLR,FEW,0.00,413.7,WeatherDisplay:10.37,2013-04-17 15:41:00,
2013-04-17 08:43:00,50.4,23.1,30.04,SSW,207,0.0,0.0,34,0.00,CLR,FEW,0.00,421.1,WeatherDisplay:10.37,2013-04-17 15:43:00,
2013-04-17 08:45:00,50.2,23.6,30.04,SSW,207,0.0,0.0,35,0.00,CLR,FEW,0.00,430.5,WeatherDisplay:10.37,2013-04-17 15:45:00,
2013-04-17 08:47:00,50.2,23.6,30.05,SSW,207,0.0,0.0,35,0.00,CLR,FEW,0.00,435.8,WeatherDisplay:10.37,2013-04-17 15:47:00,
2013-04-17 08:49:00,50.2,24.2,30.05,SSW,207,0.0,0.0,36,0.00,CLR,FEW,0.00,443.1,WeatherDisplay:10.37,2013-04-17 15:49:00,
2013-04-17 08:50:00,50.4,25.1,30.05,NNE,22,0.0,0.0,37,0.00,CLR,FEW,0.00,448.4,WeatherDisplay:10.37,2013-04-17 15:50:00,
2013-04-17 08:51:00,50.4,25.1,30.05,NNE,19,0.0,0.0,37,0.00,CLR,FEW,0.00,453.6,WeatherDisplay:10.37,2013-04-17 15:51:00,
2013-04-17 08:52:00,50.4,25.1,30.05,WNW,288,0.0,0.0,37,0.00,CLR,FEW,0.00,453.6,WeatherDisplay:10.37,2013-04-17 15:52:00,
2013-04-17 08:54:00,50.7,25.3,30.05,WNW,288,0.0,0.0,37,0.00,CLR,FEW,0.00,460.9,WeatherDisplay:10.37,2013-04-17 15:54:00,
2013-04-17 08:55:00,51.0,24.3,30.05,WNW,288,0.0,0.0,35,0.00,CLR,FEW,0.00,468.3,WeatherDisplay:10.37,2013-04-17 15:55:00,
2013-04-17 08:56:00,51.0,24.3,30.05,WNW,288,0.0,0.0,35,0.00,CLR,FEW,0.00,470.4,WeatherDisplay:10.37,2013-04-17 15:56:00,
2013-04-17 08:57:00,51.1,25.0,30.05,WNW,288,0.0,0.0,36,0.00,CLR,FEW,0.00,474.6,WeatherDisplay:10.37,2013-04-17 15:57:00,
2013-04-17 08:59:00,51.3,23.8,30.05,West,272,0.0,0.0,34,0.00,CLR,FEW,0.00,479.9,WeatherDisplay:10.37,2013-04-17 15:59:00,
2013-04-17 09:01:00,51.4,23.2,30.05,West,272,0.0,0.0,33,0.00,CLR,FEW,0.00,489.3,WeatherDisplay:10.37,2013-04-17 16:01:00,
2013-04-17 09:02:00,51.4,23.2,30.05,West,272,0.0,0.0,33,0.00,CLR,FEW,0.00,491.4,WeatherDisplay:10.37,2013-04-17 16:02:00,
2013-04-17 09:04:00,51.6,22.7,30.05,West,272,0.0,0.0,32,0.00,CLR,FEW,0.00,496.6,WeatherDisplay:10.37,2013-04-17 16:04:00,
2013-04-17 09:05:00,51.6,22.7,30.05,West,275,0.0,0.0,32,0.00,CLR,FEW,0.00,499.8,WeatherDisplay:10.37,2013-04-17 16:05:00,
2013-04-17 09:06:00,51.7,24.2,30.05,West,272,0.0,0.0,34,0.00,CLR,FEW,0.00,507.1,WeatherDisplay:10.37,2013-04-17 16:06:00,
2013-04-17 09:07:00,51.9,24.4,30.05,WSW,239,0.0,0.0,34,0.00,CLR,FEW,0.00,509.3,WeatherDisplay:10.37,2013-04-17 16:07:00,
2013-04-17 09:09:00,51.7,24.2,30.05,SSW,203,0.0,0.0,34,0.00,CLR,FEW,0.00,514.5,WeatherDisplay:10.37,2013-04-17 16:09:00,
2013-04-17 09:11:00,51.9,23.7,30.05,SSW,203,0.0,0.0,33,0.00,CLR,FEW,0.00,524.0,WeatherDisplay:10.37,2013-04-17 16:11:00,
2013-04-17 09:13:00,51.7,22.8,30.05,SSW,203,0.0,0.0,32,0.00,CLR,FEW,0.00,529.2,WeatherDisplay:10.37,2013-04-17 16:13:00,
2013-04-17 09:15:00,51.6,22.7,30.05,SSW,203,0.0,0.0,32,0.00,CLR,FEW,0.00,535.5,WeatherDisplay:10.37,2013-04-17 16:15:00,
2013-04-17 09:16:00,51.6,21.9,30.05,SSW,203,0.0,0.0,31,0.00,CLR,FEW,0.00,540.8,WeatherDisplay:10.37,2013-04-17 16:16:00,
2013-04-17 09:18:00,51.7,22.8,30.05,SSW,209,0.0,0.0,32,0.00,CLR,FEW,0.00,545.0,WeatherDisplay:10.37,2013-04-17 16:18:00,
2013-04-17 09:21:00,52.0,23.8,30.05,WSW,241,0.0,0.0,33,0.00,CLR,FEW,0.00,553.4,WeatherDisplay:10.37,2013-04-17 16:21:00,
2013-04-17 09:22:00,52.2,24.6,30.05,WSW,241,0.0,0.0,34,0.00,CLR,FEW,0.00,557.5,WeatherDisplay:10.37,2013-04-17 16:22:00,
2013-04-17 09:23:00,52.2,22.4,30.05,WSW,241,1.4,3.5,31,0.00,CLR,FEW,0.00,562.8,WeatherDisplay:10.37,2013-04-17 16:23:00,
2013-04-17 09:24:00,52.2,22.4,30.05,WSW,241,0.2,2.3,31,0.00,CLR,FEW,0.00,562.8,WeatherDisplay:10.37,2013-04-17 16:24:00,
2013-04-17 09:27:00,52.6,22.8,30.05,WSW,241,0.1,2.6,31,0.00,CLR,FEW,0.00,574.4,WeatherDisplay:10.37,2013-04-17 16:27:00,
2013-04-17 09:28:00,52.8,22.2,30.05,WSW,243,0.3,6.9,30,0.00,CLR,FEW,0.00,581.7,WeatherDisplay:10.37,2013-04-17 16:28:00,
2013-04-17 09:29:00,52.8,19.7,30.05,WSW,242,1.9,5.8,27,0.00,CLR,FEW,0.00,581.7,WeatherDisplay:10.37,2013-04-17 16:29:00,
2013-04-17 09:32:00,52.9,21.5,30.06,WSW,242,0.0,0.0,29,0.00,CLR,FEW,0.00,591.1,WeatherDisplay:10.37,2013-04-17 16:32:00,
2013-04-17 09:33:00,52.9,21.5,30.06,WSW,245,0.3,2.6,29,0.00,CLR,FEW,0.00,594.3,WeatherDisplay:10.37,2013-04-17 16:33:00,
2013-04-17 09:34:00,53.1,23.2,30.06,WSW,245,0.5,6.9,31,0.00,CLR,FEW,0.00,596.4,WeatherDisplay:10.37,2013-04-17 16:34:00,
2013-04-17 09:35:00,53.1,23.2,30.06,WSW,245,0.0,6.9,31,0.00,CLR,FEW,0.00,598.5,WeatherDisplay:10.37,2013-04-17 16:35:00,
2013-04-17 09:38:00,53.1,21.6,30.06,WSW,245,0.0,2.3,29,0.00,CLR,FEW,0.00,606.9,WeatherDisplay:10.37,2013-04-17 16:38:00,
2013-04-17 09:40:00,53.1,21.6,30.06,WSW,245,0.0,0.0,29,0.00,CLR,FEW,0.00,614.3,WeatherDisplay:10.37,2013-04-17 16:40:00,
2013-04-17 09:42:00,53.2,22.5,30.06,WSW,241,0.0,0.0,30,0.00,CLR,FEW,0.00,621.6,WeatherDisplay:10.37,2013-04-17 16:42:00,
2013-04-17 09:45:00,53.5,20.3,30.06,SSW,203,0.5,3.9,27,0.00,CLR,FEW,0.00,631.0,WeatherDisplay:10.37,2013-04-17 16:45:00,
2013-04-17 09:47:00,53.5,20.3,30.06,SSW,204,0.1,3.5,27,0.00,CLR,FEW,0.00,636.3,WeatherDisplay:10.37,2013-04-17 16:47:00,
2013-04-17 09:49:00,53.5,17.5,30.06,WSW,244,0.2,5.8,24,0.00,CLR,FEW,0.00,643.6,WeatherDisplay:10.37,2013-04-17 16:49:00,
2013-04-17 09:50:00,53.5,17.5,30.06,WSW,238,0.0,0.0,24,0.00,CLR,FEW,0.00,645.8,WeatherDisplay:10.37,2013-04-17 16:50:00,
2013-04-17 09:51:00,53.5,17.5,30.06,WSW,238,0.0,0.0,24,0.00,CLR,FEW,0.00,650.0,WeatherDisplay:10.37,2013-04-17 16:51:00,
2013-04-17 09:52:00,53.5,18.5,30.06,SSW,192,0.4,2.3,25,0.00,CLR,FEW,0.00,653.1,WeatherDisplay:10.37,2013-04-17 16:52:00,
2013-04-17 09:55:00,53.9,18.8,30.06,WSW,244,1.7,6.9,25,0.00,CLR,FEW,0.00,662.5,WeatherDisplay:10.37,2013-04-17 16:55:00,
2013-04-17 09:56:00,54.1,19.0,30.06,WSW,243,0.5,6.9,25,0.00,CLR,FEW,0.00,664.6,WeatherDisplay:10.37,2013-04-17 16:56:00,
2013-04-17 09:57:00,54.2,19.1,30.06,WSW,243,0.6,5.8,25,0.00,CLR,FEW,0.00,672.0,WeatherDisplay:10.37,2013-04-17 16:57:00,
2013-04-17 09:58:00,54.4,18.3,30.06,WSW,243,0.0,1.2,24,0.00,CLR,FEW,0.00,674.1,WeatherDisplay:10.37,2013-04-17 16:58:00,
2013-04-17 10:01:00,54.7,18.6,30.06,WSW,242,0.0,0.0,24,0.00,CLR,FEW,0.00,681.5,WeatherDisplay:10.37,2013-04-17 17:01:00,
2013-04-17 10:02:00,54.8,18.6,30.06,WSW,252,2.4,9.1,24,0.00,CLR,FEW,0.00,682.5,WeatherDisplay:10.37,2013-04-17 17:02:00,
2013-04-17 10:03:00,55.1,17.9,30.06,WSW,251,1.3,5.8,23,0.00,CLR,FEW,0.00,686.7,WeatherDisplay:10.37,2013-04-17 17:03:00,
2013-04-17 10:06:00,55.4,18.2,30.06,WSW,251,0.0,0.0,23,0.00,CLR,FEW,0.00,696.1,WeatherDisplay:10.37,2013-04-17 17:06:00,
2013-04-17 10:07:00,55.6,18.3,30.06,WSW,251,0.0,0.0,23,0.00,CLR,FEW,0.00,701.4,WeatherDisplay:10.37,2013-04-17 17:07:00,
2013-04-17 10:10:00,56.0,17.6,30.06,WSW,248,0.0,0.0,22,0.00,CLR,FEW,0.00,706.6,WeatherDisplay:10.37,2013-04-17 17:10:00,
2013-04-17 10:11:00,56.0,16.6,30.06,WSW,247,2.0,3.5,21,0.00,CLR,FEW,0.00,708.8,WeatherDisplay:10.37,2013-04-17 17:11:00,
2013-04-17 10:12:00,56.0,18.7,30.06,WSW,247,0.0,0.0,23,0.00,CLR,FEW,0.00,716.1,WeatherDisplay:10.37,2013-04-17 17:12:00,
2013-04-17 10:14:00,56.0,16.6,30.06,WSW,248,0.0,0.0,21,0.00,CLR,FEW,0.00,720.3,WeatherDisplay:10.37,2013-04-17 17:14:00,
2013-04-17 10:17:00,56.2,18.8,30.06,WSW,250,0.0,0.0,23,0.00,CLR,FEW,0.00,725.5,WeatherDisplay:10.37,2013-04-17 17:17:00,
2013-04-17 10:19:00,56.2,17.8,30.06,WSW,250,0.0,1.2,22,0.00,CLR,FEW,0.00,735.0,WeatherDisplay:10.37,2013-04-17 17:19:00,
2013-04-17 10:21:00,56.2,18.8,30.06,WSW,249,0.8,3.9,23,0.00,CLR,FEW,0.00,738.1,WeatherDisplay:10.37,2013-04-17 17:21:00,
2013-04-17 10:22:00,56.2,18.8,30.06,South,188,0.0,5.8,23,0.00,CLR,FEW,0.00,743.4,WeatherDisplay:10.37,2013-04-17 17:22:00,
2013-04-17 10:23:00,56.2,16.7,30.06,South,188,0.0,5.8,21,0.00,CLR,FEW,0.00,743.4,WeatherDisplay:10.37,2013-04-17 17:23:00,
2013-04-17 10:26:00,55.9,17.6,30.06,SW,221,0.0,0.0,22,0.00,CLR,FEW,0.00,750.8,WeatherDisplay:10.37,2013-04-17 17:26:00,
2013-04-17 10:27:00,56.0,18.7,30.06,West,266,0.0,0.0,23,0.00,CLR,FEW,0.00,755.0,WeatherDisplay:10.37,2013-04-17 17:27:00,
2013-04-17 10:28:00,56.0,18.7,30.06,West,266,0.0,0.0,23,0.00,CLR,FEW,0.00,755.0,WeatherDisplay:10.37,2013-04-17 17:28:00,
2013-04-17 10:29:00,56.2,17.8,30.06,West,266,0.0,0.0,22,0.00,CLR,FEW,0.00,760.2,WeatherDisplay:10.37,2013-04-17 17:29:00,
2013-04-17 10:31:00,56.5,18.1,30.05,West,266,0.0,0.0,22,0.00,CLR,FEW,0.00,762.3,WeatherDisplay:10.37,2013-04-17 17:31:00,
2013-04-17 10:33:00,56.6,18.1,30.05,West,266,0.0,0.0,22,0.00,CLR,FEW,0.00,769.6,WeatherDisplay:10.37,2013-04-17 17:33:00,
2013-04-17 10:34:00,56.7,19.3,30.05,WSW,257,0.0,0.0,23,0.00,CLR,FEW,0.00,773.9,WeatherDisplay:10.37,2013-04-17 17:34:00,
2013-04-17 10:36:00,57.2,18.6,30.05,WSW,257,0.0,0.0,22,0.00,CLR,FEW,0.00,779.1,WeatherDisplay:10.37,2013-04-17 17:36:00,
2013-04-17 10:37:00,57.3,18.7,30.05,WSW,257,0.0,0.0,22,0.00,CLR,FEW,0.00,781.2,WeatherDisplay:10.37,2013-04-17 17:37:00,
2013-04-17 10:39:00,57.6,16.8,30.05,WSW,251,2.1,3.9,20,0.00,CLR,FEW,0.00,784.4,WeatherDisplay:10.37,2013-04-17 17:39:00,
2013-04-17 10:41:00,57.8,16.9,30.05,SSW,202,0.0,1.2,20,0.00,CLR,FEW,0.00,791.7,WeatherDisplay:10.37,2013-04-17 17:41:00,
2013-04-17 10:42:00,58.0,18.2,30.05,SSW,202,0.0,0.0,21,0.00,CLR,FEW,0.00,795.9,WeatherDisplay:10.37,2013-04-17 17:42:00,
2013-04-17 10:44:00,58.1,18.3,30.05,SSW,202,0.0,0.0,21,0.00,CLR,FEW,0.00,797.0,WeatherDisplay:10.37,2013-04-17 17:44:00,
2013-04-17 10:45:00,58.2,19.5,30.05,SW,219,0.0,0.0,22,0.00,CLR,FEW,0.00,799.0,WeatherDisplay:10.37,2013-04-17 17:45:00,
2013-04-17 10:46:00,58.3,18.5,30.05,SSW,202,0.0,0.0,21,0.00,CLR,FEW,0.00,804.3,WeatherDisplay:10.37,2013-04-17 17:46:00,
2013-04-17 10:48:00,58.4,18.6,30.05,WNW,288,0.0,0.0,21,0.00,CLR,FEW,0.00,806.4,WeatherDisplay:10.37,2013-04-17 17:48:00,
2013-04-17 10:49:00,58.6,19.8,30.05,WNW,288,0.0,0.0,22,0.00,CLR,FEW,0.00,806.4,WeatherDisplay:10.37,2013-04-17 17:49:00,
2013-04-17 10:50:00,58.6,19.8,30.05,WNW,288,0.0,0.0,22,0.00,CLR,FEW,0.00,810.6,WeatherDisplay:10.37,2013-04-17 17:50:00,
2013-04-17 10:51:00,58.7,16.5,30.05,WNW,288,0.0,0.0,19,0.00,CLR,FEW,0.00,813.8,WeatherDisplay:10.37,2013-04-17 17:51:00,
2013-04-17 10:53:00,58.9,17.8,30.05,WNW,287,0.0,0.0,20,0.00,CLR,FEW,0.00,821.1,WeatherDisplay:10.37,2013-04-17 17:53:00,
2013-04-17 10:55:00,59.0,17.9,30.05,WNW,282,0.0,0.0,20,0.00,CLR,FEW,0.00,827.4,WeatherDisplay:10.37,2013-04-17 17:55:00,
2013-04-17 10:56:00,59.2,19.2,30.05,WNW,287,0.0,0.0,21,0.00,CLR,FEW,0.00,830.5,WeatherDisplay:10.37,2013-04-17 17:56:00,
2013-04-17 10:58:00,59.3,18.2,30.05,WNW,287,0.0,0.0,20,0.00,CLR,FEW,0.00,832.6,WeatherDisplay:10.37,2013-04-17 17:58:00,
2013-04-17 10:59:00,59.3,17.0,30.05,WNW,287,0.0,0.0,19,0.00,CLR,FEW,0.00,832.6,WeatherDisplay:10.37,2013-04-17 17:59:00,
2013-04-17 11:00:00,59.3,17.0,30.05,WSW,256,0.0,0.0,19,0.00,CLR,FEW,0.00,834.8,WeatherDisplay:10.37,2013-04-17 18:00:00,
2013-04-17 11:02:00,59.3,15.7,30.04,West,259,0.0,5.8,18,0.00,CLR,FEW,0.00,840.0,WeatherDisplay:10.37,2013-04-17 18:02:00,
2013-04-17 11:03:00,59.3,14.4,30.04,West,259,0.0,0.0,17,0.00,CLR,FEW,0.00,843.1,WeatherDisplay:10.37,2013-04-17 18:03:00,
2013-04-17 11:04:00,59.3,15.7,30.04,WSW,254,0.0,0.0,18,0.00,CLR,FEW,0.00,845.3,WeatherDisplay:10.37,2013-04-17 18:04:00,
2013-04-17 11:05:00,59.3,15.7,30.04,West,271,0.0,0.0,18,0.00,CLR,FEW,0.00,845.3,WeatherDisplay:10.37,2013-04-17 18:05:00,
2013-04-17 11:07:00,59.0,16.7,30.04,WSW,254,0.0,0.0,19,0.00,CLR,FEW,0.00,850.5,WeatherDisplay:10.37,2013-04-17 18:07:00,
2013-04-17 11:10:00,59.2,16.9,30.04,WSW,239,0.0,3.9,19,0.00,CLR,FEW,0.00,854.7,WeatherDisplay:10.37,2013-04-17 18:10:00,
2013-04-17 11:12:00,59.3,17.0,30.04,WSW,240,0.0,0.0,19,0.00,CLR,FEW,0.00,856.8,WeatherDisplay:10.37,2013-04-17 18:12:00,
2013-04-17 11:15:00,59.6,17.2,30.04,WSW,240,0.0,0.0,19,0.00,CLR,FEW,0.00,867.3,WeatherDisplay:10.37,2013-04-17 18:15:00,
2013-04-17 11:16:00,59.6,18.4,30.04,WSW,240,0.0,0.0,20,0.00,CLR,FEW,0.00,867.3,WeatherDisplay:10.37,2013-04-17 18:16:00,
2013-04-17 11:17:00,59.9,18.7,30.04,WSW,240,0.0,0.0,20,0.00,CLR,FEW,0.00,864.1,WeatherDisplay:10.37,2013-04-17 18:17:00,
2013-04-17 11:20:00,60.2,17.7,30.04,WSW,240,0.0,0.0,19,0.00,CLR,FEW,0.00,872.5,WeatherDisplay:10.37,2013-04-17 18:20:00,
2013-04-17 11:21:00,60.5,19.2,30.04,WSW,240,0.7,2.6,20,0.00,CLR,FEW,0.00,876.8,WeatherDisplay:10.37,2013-04-17 18:21:00,
2013-04-17 11:22:00,60.5,18.0,30.04,WSW,240,1.4,5.8,19,0.00,CLR,FEW,0.00,876.8,WeatherDisplay:10.37,2013-04-17 18:22:00,
2013-04-17 11:23:00,60.4,15.3,30.04,WSW,240,0.4,5.8,17,0.00,CLR,FEW,0.00,879.9,WeatherDisplay:10.37,2013-04-17 18:23:00,
2013-04-17 11:27:00,60.5,15.4,30.04,WSW,240,0.0,0.0,17,0.00,CLR,FEW,0.00,886.2,WeatherDisplay:10.37,2013-04-17 18:27:00,
2013-04-17 11:28:00,60.5,14.0,30.04,WSW,238,0.0,0.0,16,0.00,CLR,FEW,0.00,886.2,WeatherDisplay:10.37,2013-04-17 18:28:00,
2013-04-17 11:29:00,60.4,16.6,30.04,WSW,238,0.0,0.0,18,0.00,CLR,FEW,0.00,891.5,WeatherDisplay:10.37,2013-04-17 18:29:00,
2013-04-17 11:33:00,60.9,18.3,30.04,WSW,238,0.0,0.0,19,0.00,CLR,FEW,0.00,896.7,WeatherDisplay:10.37,2013-04-17 18:33:00,
2013-04-17 11:34:00,61.0,14.4,30.04,WSW,238,0.0,0.0,16,0.00,CLR,FEW,0.00,896.7,WeatherDisplay:10.37,2013-04-17 18:34:00,
2013-04-17 11:35:00,61.1,14.5,30.04,WSW,238,0.0,0.0,16,0.00,CLR,FEW,0.00,900.9,WeatherDisplay:10.37,2013-04-17 18:35:00,
2013-04-17 11:39:00,60.7,12.7,30.04,SSW,198,2.6,8.1,15,0.00,CLR,FEW,0.00,908.3,WeatherDisplay:10.37,2013-04-17 18:39:00,
2013-04-17 11:40:00,60.7,12.7,30.04,SSW,213,1.0,0.0,15,0.00,CLR,FEW,0.00,908.3,WeatherDisplay:10.37,2013-04-17 18:40:00,
2013-04-17 11:45:00,60.5,12.5,30.04,South,191,0.0,0.0,15,0.00,CLR,FEW,0.00,913.5,WeatherDisplay:10.37,2013-04-17 18:45:00,
2013-04-17 11:46:00,60.7,14.2,30.03,South,188,0.0,0.0,16,0.00,CLR,FEW,0.00,917.7,WeatherDisplay:10.37,2013-04-17 18:46:00,
2013-04-17 11:50:00,60.9,11.3,30.03,SSW,195,0.0,0.0,14,0.00,CLR,FEW,0.00,923.0,WeatherDisplay:10.37,2013-04-17 18:50:00,
2013-04-17 11:51:00,60.9,11.3,30.03,WSW,239,3.5,9.2,14,0.00,CLR,FEW,0.00,925.0,WeatherDisplay:10.37,2013-04-17 18:51:00,
2013-04-17 11:52:00,60.7,11.1,30.03,WSW,240,0.0,5.8,14,0.00,CLR,FEW,0.00,920.9,WeatherDisplay:10.37,2013-04-17 18:52:00,
2013-04-17 11:55:00,60.9,12.9,30.03,WSW,248,1.6,3.9,15,0.00,CLR,FEW,0.00,926.1,WeatherDisplay:10.37,2013-04-17 18:55:00,
2013-04-17 11:57:00,60.9,11.3,30.03,WSW,245,0.5,3.5,14,0.00,CLR,FEW,0.00,930.3,WeatherDisplay:10.37,2013-04-17 18:57:00,
2013-04-17 11:58:00,60.9,14.3,30.03,WSW,245,0.0,3.5,16,0.00,CLR,FEW,0.00,932.4,WeatherDisplay:10.37,2013-04-17 18:58:00,
2013-04-17 11:59:00,60.9,14.3,30.03,WSW,245,0.0,0.0,16,0.00,CLR,FEW,0.00,930.3,WeatherDisplay:10.37,2013-04-17 18:59:00,
2013-04-17 12:02:00,61.5,13.4,30.03,WSW,244,0.0,0.0,15,0.00,CLR,FEW,0.00,935.5,WeatherDisplay:10.37,2013-04-17 19:02:00,
2013-04-17 12:03:00,61.6,11.9,30.03,SSW,196,0.0,0.0,14,0.00,CLR,FEW,0.00,939.8,WeatherDisplay:10.37,2013-04-17 19:03:00,
2013-04-17 12:04:00,61.3,11.6,30.03,ESE,117,0.3,5.8,14,0.00,CLR,FEW,0.00,942.9,WeatherDisplay:10.37,2013-04-17 19:04:00,
2013-04-17 12:07:00,61.5,10.1,30.03,South,173,0.0,1.2,13,0.00,CLR,FEW,0.00,942.9,WeatherDisplay:10.37,2013-04-17 19:07:00,
2013-04-17 12:08:00,61.5,10.1,30.03,South,172,0.0,1.2,13,0.00,CLR,FEW,0.00,942.9,WeatherDisplay:10.37,2013-04-17 19:08:00,
2013-04-17 12:09:00,61.6,10.2,30.03,East,90,0.9,8.1,13,0.00,CLR,FEW,0.00,945.0,WeatherDisplay:10.37,2013-04-17 19:09:00,
2013-04-17 12:12:00,61.6,10.2,30.03,SE,141,0.6,0.0,13,0.00,CLR,FEW,0.00,947.1,WeatherDisplay:10.37,2013-04-17 19:12:00,
2013-04-17 12:13:00,61.5,10.1,30.03,SE,138,0.0,2.3,13,0.00,CLR,FEW,0.00,947.1,WeatherDisplay:10.37,2013-04-17 19:13:00,
2013-04-17 12:15:00,61.6,11.9,30.03,SSW,196,0.0,0.0,14,0.00,CLR,FEW,0.00,947.1,WeatherDisplay:10.37,2013-04-17 19:15:00,
2013-04-17 12:18:00,62.4,10.8,30.03,SSW,193,2.1,10.4,13,0.00,CLR,FEW,0.00,950.3,WeatherDisplay:10.37,2013-04-17 19:18:00,
2013-04-17 12:20:00,62.3,10.7,30.03,South,175,0.0,0.0,13,0.00,CLR,FEW,0.00,949.2,WeatherDisplay:10.37,2013-04-17 19:20:00,
2013-04-17 12:21:00,62.1,10.6,30.03,SW,218,0.7,5.8,13,0.00,CLR,FEW,0.00,954.5,WeatherDisplay:10.37,2013-04-17 19:21:00,
2013-04-17 12:23:00,62.3,10.8,30.03,SSW,200,0.0,0.0,13,0.00,CLR,FEW,0.00,952.4,WeatherDisplay:10.37,2013-04-17 19:23:00,
2013-04-17 12:25:00,62.6,9.2,30.03,SSW,199,0.0,0.0,12,0.00,CLR,FEW,0.00,952.4,WeatherDisplay:10.37,2013-04-17 19:25:00,
2013-04-17 12:26:00,63.1,9.6,30.03,SSW,199,0.0,0.0,12,0.00,CLR,FEW,0.00,956.5,WeatherDisplay:10.37,2013-04-17 19:26:00,
2013-04-17 12:27:00,63.2,9.7,30.03,SSW,200,0.0,0.0,12,0.00,CLR,FEW,0.00,957.6,WeatherDisplay:10.37,2013-04-17 19:27:00,
2013-04-17 12:28:00,63.5,11.7,30.03,SSW,200,0.0,0.0,13,0.00,CLR,FEW,0.00,956.5,WeatherDisplay:10.37,2013-04-17 19:28:00,
2013-04-17 12:31:00,63.9,13.7,30.02,SSW,205,0.1,1.2,14,0.00,CLR,FEW,0.00,963.9,WeatherDisplay:10.37,2013-04-17 19:31:00,
2013-04-17 12:32:00,63.9,10.2,30.02,SSW,194,0.0,2.3,12,0.00,CLR,FEW,0.00,961.8,WeatherDisplay:10.37,2013-04-17 19:32:00,
2013-04-17 12:33:00,63.7,11.9,30.02,SSW,192,3.4,8.1,13,0.00,CLR,FEW,0.00,959.7,WeatherDisplay:10.37,2013-04-17 19:33:00,
2013-04-17 12:34:00,63.5,8.0,30.02,SSW,197,3.5,8.1,11,0.00,CLR,FEW,0.00,961.8,WeatherDisplay:10.37,2013-04-17 19:34:00,
2013-04-17 12:37:00,62.6,9.2,30.02,WSW,250,0.0,0.0,12,0.00,CLR,FEW,0.00,961.8,WeatherDisplay:10.37,2013-04-17 19:37:00,
2013-04-17 12:39:00,62.4,9.0,30.02,WSW,249,0.0,0.0,12,0.00,CLR,FEW,0.00,963.9,WeatherDisplay:10.37,2013-04-17 19:39:00,
2013-04-17 12:40:00,62.4,10.8,30.02,SW,231,0.0,0.0,13,0.00,CLR,FEW,0.00,963.9,WeatherDisplay:10.37,2013-04-17 19:40:00,
2013-04-17 12:42:00,63.4,13.3,30.02,WSW,250,0.0,0.0,14,0.00,CLR,FEW,0.00,963.9,WeatherDisplay:10.37,2013-04-17 19:42:00,
2013-04-17 12:43:00,63.5,13.4,30.02,WSW,249,0.0,0.0,14,0.00,CLR,FEW,0.00,963.9,WeatherDisplay:10.37,2013-04-17 19:43:00,
2013-04-17 12:44:00,64.2,12.3,30.02,WSW,248,0.0,0.0,13,0.00,CLR,FEW,0.00,965.0,WeatherDisplay:10.37,2013-04-17 19:44:00,
2013-04-17 12:45:00,64.1,12.2,30.02,WSW,248,0.0,0.0,13,0.00,CLR,FEW,0.00,965.0,WeatherDisplay:10.37,2013-04-17 19:45:00,
2013-04-17 12:48:00,64.8,10.9,30.02,WSW,256,0.0,2.3,12,0.00,CLR,FEW,0.00,967.0,WeatherDisplay:10.37,2013-04-17 19:48:00,
2013-04-17 12:50:00,64.8,10.9,30.02,WSW,248,5.0,0.0,12,0.00,CLR,FEW,0.00,967.0,WeatherDisplay:10.37,2013-04-17 19:50:00,
2013-04-17 12:54:00,64.8,14.4,30.02,SW,223,0.1,6.9,14,0.00,CLR,FEW,0.00,967.0,WeatherDisplay:10.37,2013-04-17 19:54:00,
2013-04-17 12:55:00,64.8,10.9,30.02,SW,220,0.3,1.2,12,0.00,CLR,FEW,0.00,969.1,WeatherDisplay:10.37,2013-04-17 19:55:00,
2013-04-17 12:56:00,64.7,8.9,30.02,SW,216,0.0,0.0,11,0.00,CLR,FEW,0.00,969.1,WeatherDisplay:10.37,2013-04-17 19:56:00,
2013-04-17 12:57:00,64.7,8.9,30.02,NNE,15,0.0,0.0,11,0.00,CLR,FEW,0.00,967.0,WeatherDisplay:10.37,2013-04-17 19:57:00,
2013-04-17 12:59:00,64.8,10.9,30.02,West,264,0.0,0.0,12,0.00,CLR,FEW,0.00,969.1,WeatherDisplay:10.37,2013-04-17 19:59:00,
2013-04-17 13:00:00,64.8,10.9,30.02,West,264,0.0,0.0,12,0.00,CLR,FEW,0.00,969.1,WeatherDisplay:10.37,2013-04-17 20:00:00,
2013-04-17 13:02:00,65.3,13.1,30.01,WSW,254,0.2,2.3,13,0.00,CLR,FEW,0.00,971.3,WeatherDisplay:10.37,2013-04-17 20:02:00,
2013-04-17 13:03:00,65.6,13.4,30.01,WSW,248,0.8,2.6,13,0.00,CLR,FEW,0.00,971.3,WeatherDisplay:10.37,2013-04-17 20:03:00,
2013-04-17 13:05:00,65.9,13.6,30.01,WNW,290,0.0,0.0,13,0.00,CLR,FEW,0.00,971.3,WeatherDisplay:10.37,2013-04-17 20:05:00,
2013-04-17 13:07:00,66.1,13.8,30.01,WSW,246,1.6,8.1,13,0.00,CLR,FEW,0.00,971.3,WeatherDisplay:10.37,2013-04-17 20:07:00,
2013-04-17 13:08:00,66.1,13.8,30.01,WSW,242,1.5,2.6,13,0.00,CLR,FEW,0.00,971.3,WeatherDisplay:10.37,2013-04-17 20:08:00,
2013-04-17 13:10:00,66.1,10.0,30.01,WSW,244,5.9,10.4,11,0.00,CLR,FEW,0.00,971.3,WeatherDisplay:10.37,2013-04-17 20:10:00,
2013-04-17 13:11:00,66.1,7.9,30.01,WSW,250,7.2,11.5,10,0.00,CLR,FEW,0.00,969.1,WeatherDisplay:10.37,2013-04-17 20:11:00,
2013-04-17 13:12:00,66.0,9.9,30.01,WSW,242,6.6,11.5,11,0.00,CLR,FEW,0.00,971.3,WeatherDisplay:10.37,2013-04-17 20:12:00,
2013-04-17 13:13:00,66.0,11.9,30.01,WSW,240,5.5,11.5,12,0.00,CLR,FEW,0.00,971.3,WeatherDisplay:10.37,2013-04-17 20:13:00,
2013-04-17 13:15:00,66.4,10.2,30.01,WSW,242,7.8,9.1,11,0.00,CLR,FEW,0.00,971.3,WeatherDisplay:10.37,2013-04-17 20:15:00,
2013-04-17 13:16:00,66.4,10.2,30.02,WSW,242,7.7,9.2,11,0.00,CLR,FEW,0.00,971.3,WeatherDisplay:10.37,2013-04-17 20:16:00,
2013-04-17 13:17:00,66.6,8.2,30.02,WSW,245,5.8,8.1,10,0.00,CLR,FEW,0.00,969.1,WeatherDisplay:10.37,2013-04-17 20:17:00,
2013-04-17 13:18:00,66.6,10.4,30.02,WSW,245,4.8,8.1,11,0.00,CLR,FEW,0.00,967.0,WeatherDisplay:10.37,2013-04-17 20:18:00,
2013-04-17 13:20:00,66.3,8.0,30.02,WSW,243,6.0,0.0,10,0.00,CLR,FEW,0.00,971.3,WeatherDisplay:10.37,2013-04-17 20:20:00,
2013-04-17 13:22:00,66.0,13.7,30.02,South,186,0.5,2.6,13,0.00,CLR,FEW,0.00,969.1,WeatherDisplay:10.37,2013-04-17 20:22:00,
2013-04-17 13:23:00,66.0,9.9,30.02,SSW,210,3.3,5.8,11,0.00,CLR,FEW,0.00,969.1,WeatherDisplay:10.37,2013-04-17 20:23:00,
2013-04-17 13:26:00,65.8,9.7,30.02,WSW,243,1.6,10.4,11,0.00,CLR,FEW,0.00,967.0,WeatherDisplay:10.37,2013-04-17 20:26:00,
2013-04-17 13:28:00,65.8,11.7,30.02,WSW,243,0.0,0.0,12,0.00,CLR,FEW,0.00,967.0,WeatherDisplay:10.37,2013-04-17 20:28:00,
2013-04-17 13:29:00,65.8,11.7,30.02,WSW,243,0.0,0.0,12,0.00,CLR,FEW,0.00,965.0,WeatherDisplay:10.37,2013-04-17 20:29:00,
2013-04-17 13:32:00,65.8,7.6,30.01,WSW,237,0.0,0.0,10,0.00,CLR,FEW,0.00,961.8,WeatherDisplay:10.37,2013-04-17 20:32:00,
2013-04-17 13:33:00,65.8,11.7,30.01,WSW,238,0.0,0.0,12,0.00,CLR,FEW,0.00,965.0,WeatherDisplay:10.37,2013-04-17 20:33:00,
2013-04-17 13:34:00,66.0,9.9,30.01,SW,218,0.0,0.0,11,0.00,CLR,FEW,0.00,963.9,WeatherDisplay:10.37,2013-04-17 20:34:00,
2013-04-17 13:36:00,66.1,10.0,30.01,WSW,240,0.8,6.9,11,0.00,CLR,FEW,0.00,963.9,WeatherDisplay:10.37,2013-04-17 20:36:00,
2013-04-17 13:37:00,66.1,10.0,30.01,SW,223,0.1,5.8,11,0.00,CLR,FEW,0.00,963.9,WeatherDisplay:10.37,2013-04-17 20:37:00,
2013-04-17 13:38:00,66.3,10.1,30.01,SSW,196,0.1,1.2,11,0.00,CLR,FEW,0.00,957.6,WeatherDisplay:10.37,2013-04-17 20:38:00,
2013-04-17 13:40:00,66.3,8.0,30.01,SW,233,2.0,0.0,10,0.00,CLR,FEW,0.00,961.8,WeatherDisplay:10.37,2013-04-17 20:40:00,
2013-04-17 13:42:00,66.4,8.1,30.01,West,260,5.5,13.8,10,0.00,CLR,FEW,0.00,957.6,WeatherDisplay:10.37,2013-04-17 20:42:00,
2013-04-17 13:43:00,66.3,12.1,30.01,WSW,250,0.0,3.5,12,0.00,CLR,FEW,0.00,957.6,WeatherDisplay:10.37,2013-04-17 20:43:00,
2013-04-17 13:45:00,66.3,8.0,30.01,WSW,250,0.0,0.0,10,0.00,CLR,FEW,0.00,956.5,WeatherDisplay:10.37,2013-04-17 20:45:00,
2013-04-17 13:47:00,66.4,8.1,30.02,WSW,250,0.0,0.0,10,0.00,CLR,FEW,0.00,954.5,WeatherDisplay:10.37,2013-04-17 20:47:00,
2013-04-17 13:48:00,66.6,8.2,30.02,WSW,250,0.0,0.0,10,0.00,CLR,FEW,0.00,954.5,WeatherDisplay:10.37,2013-04-17 20:48:00,
2013-04-17 13:50:00,66.8,8.4,30.02,WSW,252,0.0,0.0,10,0.00,CLR,FEW,0.00,956.5,WeatherDisplay:10.37,2013-04-17 20:50:00,
2013-04-17 13:52:00,67.3,8.8,30.02,WSW,239,0.0,0.0,10,0.00,CLR,FEW,0.00,950.3,WeatherDisplay:10.37,2013-04-17 20:52:00,
2013-04-17 13:53:00,67.4,8.9,30.02,WSW,246,1.8,5.2,10,0.00,CLR,FEW,0.00,950.3,WeatherDisplay:10.37,2013-04-17 20:53:00,
2013-04-17 13:55:00,67.1,8.6,30.02,SW,221,0.0,0.0,10,0.00,CLR,FEW,0.00,952.4,WeatherDisplay:10.37,2013-04-17 20:55:00,
2013-04-17 13:57:00,66.9,6.1,30.02,South,190,0.0,0.0,9,0.00,CLR,FEW,0.00,947.1,WeatherDisplay:10.37,2013-04-17 20:57:00,
2013-04-17 13:58:00,66.4,10.2,30.02,WSW,243,0.0,1.2,11,0.00,CLR,FEW,0.00,947.1,WeatherDisplay:10.37,2013-04-17 20:58:00,
2013-04-17 13:59:00,66.3,5.7,30.02,SSW,192,0.0,0.0,9,0.00,CLR,FEW,0.00,945.0,WeatherDisplay:10.37,2013-04-17 20:59:00,
2013-04-17 14:00:00,66.0,2.9,30.02,South,189,0.0,0.0,8,0.00,CLR,FEW,0.00,945.0,WeatherDisplay:10.37,2013-04-17 21:00:00,
2013-04-17 14:01:00,66.0,2.9,30.02,South,189,0.0,0.0,8,0.00,CLR,FEW,0.00,942.9,WeatherDisplay:10.37,2013-04-17 21:01:00,
2013-04-17 14:04:00,66.0,7.8,30.02,South,189,0.0,0.0,10,0.00,CLR,FEW,0.00,940.8,WeatherDisplay:10.37,2013-04-17 21:04:00,
2013-04-17 14:06:00,66.9,6.1,30.02,SW,230,1.4,8.1,9,0.00,CLR,FEW,0.00,939.8,WeatherDisplay:10.37,2013-04-17 21:06:00,
2013-04-17 14:08:00,67.4,6.5,30.02,WSW,237,0.0,0.0,9,0.00,CLR,FEW,0.00,933.5,WeatherDisplay:10.37,2013-04-17 21:08:00,
2013-04-17 14:10:00,67.6,6.7,30.02,WSW,254,0.0,0.0,9,0.00,CLR,FEW,0.00,932.4,WeatherDisplay:10.37,2013-04-17 21:10:00,
2013-04-17 14:12:00,67.4,3.9,30.02,WSW,254,0.0,0.0,8,0.00,CLR,FEW,0.00,930.3,WeatherDisplay:10.37,2013-04-17 21:12:00,
2013-04-17 14:13:00,67.3,3.9,30.02,WSW,252,0.0,0.0,8,0.00,CLR,FEW,0.00,930.3,WeatherDisplay:10.37,2013-04-17 21:13:00,
2013-04-17 14:14:00,67.3,3.9,30.02,WSW,252,0.0,0.0,8,0.00,CLR,FEW,0.00,930.3,WeatherDisplay:10.37,2013-04-17 21:14:00,
2013-04-17 14:15:00,67.3,10.9,30.02,WSW,250,0.2,3.9,11,0.00,CLR,FEW,0.00,930.3,WeatherDisplay:10.37,2013-04-17 21:15:00,
2013-04-17 14:17:00,67.3,3.9,30.01,WSW,251,3.6,10.4,8,0.00,CLR,FEW,0.00,928.2,WeatherDisplay:10.37,2013-04-17 21:17:00,
2013-04-17 14:20:00,67.3,6.4,30.01,West,266,0.0,0.0,9,0.00,CLR,FEW,0.00,925.0,WeatherDisplay:10.37,2013-04-17 21:20:00,
2013-04-17 14:22:00,67.4,3.9,30.01,NW,313,0.0,0.0,8,0.00,CLR,FEW,0.00,920.9,WeatherDisplay:10.37,2013-04-17 21:22:00,
2013-04-17 14:23:00,67.6,4.1,30.01,NNW,336,0.0,0.0,8,0.00,CLR,FEW,0.00,920.9,WeatherDisplay:10.37,2013-04-17 21:23:00,
2013-04-17 14:25:00,67.9,6.9,30.01,SSW,192,0.0,0.0,9,0.00,CLR,FEW,0.00,917.7,WeatherDisplay:10.37,2013-04-17 21:25:00,
2013-04-17 14:27:00,67.9,6.9,30.01,West,259,0.9,2.3,9,0.00,CLR,FEW,0.00,915.6,WeatherDisplay:10.37,2013-04-17 21:27:00,
2013-04-17 14:28:00,68.1,7.1,30.01,WSW,248,0.8,7.8,9,0.00,CLR,FEW,0.00,915.6,WeatherDisplay:10.37,2013-04-17 21:28:00,
2013-04-17 14:29:00,68.3,4.6,30.01,WSW,252,0.4,8.1,8,0.00,CLR,FEW,0.00,911.4,WeatherDisplay:10.37,2013-04-17 21:29:00,
2013-04-17 14:30:00,68.3,9.5,30.01,WSW,244,2.8,6.5,10,0.00,CLR,FEW,0.00,911.4,WeatherDisplay:10.37,2013-04-17 21:30:00,
2013-04-17 14:33:00,68.3,4.6,30.01,WSW,249,3.3,8.1,8,0.00,CLR,FEW,0.00,904.0,WeatherDisplay:10.37,2013-04-17 21:33:00,
2013-04-17 14:35:00,68.3,7.2,30.01,WSW,246,0.0,0.0,9,0.00,CLR,FEW,0.00,896.7,WeatherDisplay:10.37,2013-04-17 21:35:00,
2013-04-17 14:38:00,68.3,4.6,30.01,SW,221,1.5,5.2,8,0.00,CLR,FEW,0.00,896.7,WeatherDisplay:10.37,2013-04-17 21:38:00,
2013-04-17 14:40:00,68.1,4.5,30.01,South,175,0.2,2.3,8,0.00,CLR,FEW,0.00,893.5,WeatherDisplay:10.37,2013-04-17 21:40:00,
2013-04-17 14:41:00,67.6,1.2,30.01,South,175,0.2,2.3,7,0.00,CLR,FEW,0.00,893.5,WeatherDisplay:10.37,2013-04-17 21:41:00,
2013-04-17 14:42:00,67.1,0.8,30.01,WSW,250,0.5,3.9,7,0.00,CLR,FEW,0.00,888.3,WeatherDisplay:10.37,2013-04-17 21:42:00,
2013-04-17 14:44:00,66.8,0.6,30.01,SSW,193,0.8,6.9,7,0.00,CLR,FEW,0.00,886.2,WeatherDisplay:10.37,2013-04-17 21:44:00,
2013-04-17 14:46:00,66.6,0.5,30.01,SSW,194,0.7,5.8,7,0.00,CLR,FEW,0.00,879.9,WeatherDisplay:10.37,2013-04-17 21:46:00,
2013-04-17 14:47:00,66.6,0.5,30.01,SSW,203,0.0,0.0,7,0.00,CLR,FEW,0.00,878.9,WeatherDisplay:10.37,2013-04-17 21:47:00,
2013-04-17 14:48:00,66.8,0.6,30.01,South,169,0.0,0.0,7,0.00,CLR,FEW,0.00,876.8,WeatherDisplay:10.37,2013-04-17 21:48:00,
2013-04-17 14:50:00,66.9,0.7,30.01,SE,138,4.3,6.9,7,0.00,CLR,FEW,0.00,828.5,WeatherDisplay:10.37,2013-04-17 21:50:00,
2013-04-17 14:51:00,66.8,0.6,30.01,SSE,160,0.7,6.9,7,0.00,CLR,FEW,0.00,797.0,WeatherDisplay:10.37,2013-04-17 21:51:00,
2013-04-17 14:53:00,67.1,0.8,30.01,SE,125,0.0,0.0,7,0.00,CLR,FEW,0.00,871.5,WeatherDisplay:10.37,2013-04-17 21:53:00,
2013-04-17 14:54:00,67.3,1.0,30.01,SSW,200,0.0,0.0,7,0.00,CLR,FEW,0.00,867.3,WeatherDisplay:10.37,2013-04-17 21:54:00,
2013-04-17 14:55:00,67.3,1.0,30.01,SE,132,4.8,12.7,7,0.00,CLR,FEW,0.00,865.2,WeatherDisplay:10.37,2013-04-17 21:55:00,
2013-04-17 14:58:00,66.6,0.5,30.01,SE,144,12.4,12.7,7,0.00,CLR,FEW,0.00,856.8,WeatherDisplay:10.37,2013-04-17 21:58:00,
2013-04-17 14:59:00,66.4,-2.9,30.01,SE,130,9.3,13.8,6,0.00,CLR,FEW,0.00,854.7,WeatherDisplay:10.37,2013-04-17 21:59:00,
2013-04-17 15:00:00,66.4,0.3,30.01,SSW,192,1.9,13.8,7,0.00,CLR,FEW,0.00,852.6,WeatherDisplay:10.37,2013-04-17 22:00:00,
2013-04-17 15:02:00,66.8,0.6,30.01,WSW,248,0.0,0.0,7,0.00,CLR,FEW,0.00,850.5,WeatherDisplay:10.37,2013-04-17 22:02:00,
2013-04-17 15:05:00,66.9,0.7,30.01,SSE,157,1.0,0.0,7,0.00,CLR,FEW,0.00,842.1,WeatherDisplay:10.37,2013-04-17 22:05:00,
2013-04-17 15:06:00,66.8,0.6,30.01,SSW,196,11.3,12.7,7,0.00,CLR,FEW,0.00,842.1,WeatherDisplay:10.37,2013-04-17 22:06:00,
2013-04-17 15:08:00,65.6,2.6,30.01,SSW,200,2.3,9.2,8,0.00,CLR,FEW,0.00,835.8,WeatherDisplay:10.37,2013-04-17 22:08:00,
2013-04-17 15:10:00,65.5,-0.3,30.01,SSE,157,0.1,17.3,7,0.00,CLR,FEW,0.00,832.6,WeatherDisplay:10.37,2013-04-17 22:10:00,
2013-04-17 15:11:00,65.5,-0.3,30.01,SE,146,0.0,0.0,7,0.00,CLR,FEW,0.00,823.2,WeatherDisplay:10.37,2013-04-17 22:11:00,
2013-04-17 15:13:00,65.8,-0.1,30.01,SE,146,1.6,5.2,7,0.00,CLR,FEW,0.00,819.0,WeatherDisplay:10.37,2013-04-17 22:13:00,
2013-04-17 15:15:00,65.9,-0.1,30.01,South,186,5.0,0.0,7,0.00,CLR,FEW,0.00,818.0,WeatherDisplay:10.37,2013-04-17 22:15:00,
2013-04-17 15:16:00,66.0,0.0,30.00,SSW,200,1.5,8.1,7,0.00,CLR,FEW,0.00,818.0,WeatherDisplay:10.37,2013-04-17 22:16:00,
2013-04-17 15:20:00,66.4,0.4,30.00,SSW,198,2.0,0.0,7,0.00,CLR,FEW,0.00,810.6,WeatherDisplay:10.37,2013-04-17 22:20:00,
2013-04-17 15:21:00,66.4,3.2,30.00,WSW,254,1.9,2.3,8,0.00,CLR,FEW,0.00,806.4,WeatherDisplay:10.37,2013-04-17 22:21:00,
2013-04-17 15:22:00,66.6,0.5,30.00,WSW,238,6.0,11.5,7,0.00,CLR,FEW,0.00,804.3,WeatherDisplay:10.37,2013-04-17 22:22:00,
2013-04-17 15:23:00,66.8,0.6,30.00,WSW,257,6.3,10.4,7,0.00,CLR,FEW,0.00,801.1,WeatherDisplay:10.37,2013-04-17 22:23:00,
2013-04-17 15:25:00,66.8,0.6,30.00,WSW,258,1.0,9.2,7,0.00,CLR,FEW,0.00,797.0,WeatherDisplay:10.37,2013-04-17 22:25:00,
2013-04-17 15:27:00,67.4,3.9,30.00,WSW,252,0.0,0.0,8,0.00,CLR,FEW,0.00,788.5,WeatherDisplay:10.37,2013-04-17 22:27:00,
2013-04-17 15:28:00,67.4,6.5,30.00,WSW,252,0.0,0.0,9,0.00,CLR,FEW,0.00,784.4,WeatherDisplay:10.37,2013-04-17 22:28:00,
2013-04-17 15:30:00,68.1,4.5,30.00,WSW,252,0.0,0.0,8,0.00,CLR,FEW,0.00,758.1,WeatherDisplay:10.37,2013-04-17 22:30:00,
2013-04-17 15:32:00,68.6,4.8,30.00,WNW,288,0.0,0.0,8,0.00,CLR,FEW,0.00,716.1,WeatherDisplay:10.37,2013-04-17 22:32:00,
2013-04-17 15:35:00,68.9,-1.1,30.00,WSW,251,3.0,0.0,6,0.00,CLR,FEW,0.00,769.6,WeatherDisplay:10.37,2013-04-17 22:35:00,
2013-04-17 15:37:00,68.1,-1.7,30.00,WSW,252,2.2,5.8,6,0.00,CLR,FEW,0.00,767.5,WeatherDisplay:10.37,2013-04-17 22:37:00,
2013-04-17 15:38:00,68.1,-1.7,30.00,WSW,252,0.1,6.9,6,0.00,CLR,FEW,0.00,764.4,WeatherDisplay:10.37,2013-04-17 22:38:00,
2013-04-17 15:40:00,67.8,-1.9,30.00,South,188,0.0,2.3,6,0.00,CLR,FEW,0.00,760.2,WeatherDisplay:10.37,2013-04-17 22:40:00,
2013-04-17 15:41:00,67.8,4.2,30.00,WSW,239,0.0,0.0,8,0.00,CLR,FEW,0.00,758.1,WeatherDisplay:10.37,2013-04-17 22:41:00,
2013-04-17 15:42:00,67.9,4.3,30.00,WSW,242,2.1,5.8,8,0.00,CLR,FEW,0.00,752.9,WeatherDisplay:10.37,2013-04-17 22:42:00,
2013-04-17 15:43:00,67.9,-1.9,30.00,WSW,242,3.7,9.2,6,0.00,CLR,FEW,0.00,750.8,WeatherDisplay:10.37,2013-04-17 22:43:00,
2013-04-17 15:46:00,68.3,1.7,30.00,WSW,247,3.7,9.2,7,0.00,CLR,FEW,0.00,740.3,WeatherDisplay:10.37,2013-04-17 22:46:00,
2013-04-17 15:47:00,68.4,1.8,30.00,SW,220,1.2,9.2,7,0.00,CLR,FEW,0.00,692.0,WeatherDisplay:10.37,2013-04-17 22:47:00,
2013-04-17 15:49:00,68.6,4.8,30.00,WSW,237,0.7,3.5,8,0.00,CLR,FEW,0.00,728.7,WeatherDisplay:10.37,2013-04-17 22:49:00,
2013-04-17 15:50:00,68.6,1.9,30.00,WSW,241,0.6,2.3,7,0.00,CLR,FEW,0.00,728.7,WeatherDisplay:10.37,2013-04-17 22:50:00,
2013-04-17 15:52:00,68.4,-1.5,30.00,SSW,213,3.3,10.4,6,0.00,CLR,FEW,0.00,723.5,WeatherDisplay:10.37,2013-04-17 22:52:00,
2013-04-17 15:53:00,68.3,-1.6,30.00,SSW,213,1.9,8.1,6,0.00,CLR,FEW,0.00,723.5,WeatherDisplay:10.37,2013-04-17 22:53:00,
2013-04-17 15:54:00,67.9,-1.9,30.00,SSW,196,0.9,3.5,6,0.00,CLR,FEW,0.00,721.4,WeatherDisplay:10.37,2013-04-17 22:54:00,
2013-04-17 15:55:00,67.4,-2.2,30.00,SSW,196,0.0,2.3,6,0.00,CLR,FEW,0.00,713.0,WeatherDisplay:10.37,2013-04-17 22:55:00,
2013-04-17 15:58:00,67.6,4.1,30.00,SW,230,0.6,6.9,8,0.00,CLR,FEW,0.00,697.2,WeatherDisplay:10.37,2013-04-17 22:58:00,
2013-04-17 15:59:00,67.6,4.1,30.00,SSW,196,0.0,1.3,8,0.00,CLR,FEW,0.00,697.2,WeatherDisplay:10.37,2013-04-17 22:59:00,
2013-04-17 16:00:00,67.8,-1.9,30.00,SSW,195,0.0,1.2,6,0.00,CLR,FEW,0.00,694.0,WeatherDisplay:10.37,2013-04-17 23:00:00,
2013-04-17 16:03:00,68.3,-1.6,29.99,South,184,0.0,0.0,6,0.00,CLR,FEW,0.00,688.8,WeatherDisplay:10.37,2013-04-17 23:03:00,
2013-04-17 16:04:00,68.4,-1.5,29.99,SW,221,0.0,0.0,6,0.00,CLR,FEW,0.00,686.7,WeatherDisplay:10.37,2013-04-17 23:04:00,
2013-04-17 16:05:00,68.4,-1.5,29.99,WSW,252,5.3,15.6,6,0.00,CLR,FEW,0.00,682.5,WeatherDisplay:10.37,2013-04-17 23:05:00,
2013-04-17 16:06:00,68.4,-1.5,29.99,WSW,248,6.2,16.1,6,0.00,CLR,FEW,0.00,682.5,WeatherDisplay:10.37,2013-04-17 23:06:00,
2013-04-17 16:10:00,68.4,1.8,29.99,WSW,247,1.0,3.5,7,0.00,CLR,FEW,0.00,664.6,WeatherDisplay:10.37,2013-04-17 23:10:00,
2013-04-17 16:11:00,68.6,-1.3,29.99,WSW,248,2.2,5.8,6,0.00,CLR,FEW,0.00,662.5,WeatherDisplay:10.37,2013-04-17 23:11:00,
2013-04-17 16:12:00,68.9,2.2,29.99,WSW,248,0.0,0.0,7,0.00,CLR,FEW,0.00,660.5,WeatherDisplay:10.37,2013-04-17 23:12:00,
2013-04-17 16:15:00,69.6,2.7,29.99,WSW,238,3.6,9.1,7,0.00,CLR,FEW,0.00,348.6,WeatherDisplay:10.37,2013-04-17 23:15:00,
2013-04-17 16:16:00,69.6,-0.6,29.99,WSW,242,2.8,9.2,6,0.00,CLR,FEW,0.00,613.2,WeatherDisplay:10.37,2013-04-17 23:16:00,
2013-04-17 16:17:00,69.6,-0.6,29.99,WSW,242,2.3,6.9,6,0.00,CLR,FEW,0.00,613.2,WeatherDisplay:10.37,2013-04-17 23:17:00,
2013-04-17 16:19:00,69.6,-0.6,29.99,SW,231,4.6,11.5,6,0.00,CLR,FEW,0.00,577.5,WeatherDisplay:10.37,2013-04-17 23:19:00,
2013-04-17 16:21:00,69.6,-0.6,29.99,WSW,250,6.6,11.5,6,0.00,CLR,FEW,0.00,640.5,WeatherDisplay:10.37,2013-04-17 23:21:00,
2013-04-17 16:22:00,69.6,-0.6,29.99,WSW,248,5.5,9.2,6,0.00,CLR,FEW,0.00,640.5,WeatherDisplay:10.37,2013-04-17 23:22:00,
2013-04-17 16:25:00,69.6,-0.6,29.99,WSW,242,3.5,9.2,6,0.00,CLR,FEW,0.00,629.0,WeatherDisplay:10.37,2013-04-17 23:25:00,
2013-04-17 16:27:00,69.4,2.5,29.99,WSW,240,5.2,5.8,7,0.00,CLR,FEW,0.00,603.8,WeatherDisplay:10.37,2013-04-17 23:27:00,
2013-04-17 16:28:00,69.4,2.5,29.99,WSW,240,4.9,9.2,7,0.00,CLR,FEW,0.00,603.8,WeatherDisplay:10.37,2013-04-17 23:28:00,
2013-04-17 16:29:00,69.1,-4.8,29.99,SSW,194,11.5,11.5,5,0.00,CLR,FEW,0.00,411.6,WeatherDisplay:10.37,2013-04-17 23:29:00,
2013-04-17 16:30:00,69.2,-4.7,29.99,SW,222,9.0,0.0,5,0.00,CLR,FEW,0.00,411.6,WeatherDisplay:10.37,2013-04-17 23:30:00,
2013-04-17 16:31:00,68.4,-1.5,29.99,SSW,213,2.0,6.9,6,0.00,CLR,FEW,0.00,411.6,WeatherDisplay:10.37,2013-04-17 23:31:00,
2013-04-17 16:33:00,67.6,-5.9,29.99,South,176,4.3,16.1,5,0.00,CLR,FEW,0.00,599.5,WeatherDisplay:10.37,2013-04-17 23:33:00,
2013-04-17 16:34:00,67.4,-2.2,29.99,ESE,114,2.3,10.4,6,0.00,CLR,FEW,0.00,596.4,WeatherDisplay:10.37,2013-04-17 23:34:00,
2013-04-17 16:35:00,67.3,-6.1,29.99,SSW,209,5.4,10.4,5,0.00,CLR,FEW,0.00,594.3,WeatherDisplay:10.37,2013-04-17 23:35:00,
2013-04-17 16:36:00,67.3,-6.1,29.99,SSW,202,1.3,10.4,5,0.00,CLR,FEW,0.00,591.1,WeatherDisplay:10.37,2013-04-17 23:36:00,
2013-04-17 16:40:00,67.1,-2.4,29.99,SSW,194,0.0,0.0,6,0.00,CLR,FEW,0.00,574.4,WeatherDisplay:10.37,2013-04-17 23:40:00,
2013-04-17 16:41:00,67.3,-2.3,29.99,SSW,195,5.0,9.2,6,0.00,CLR,FEW,0.00,570.1,WeatherDisplay:10.37,2013-04-17 23:41:00,
2013-04-17 16:45:00,67.6,4.1,29.99,SW,221,3.0,9.1,8,0.00,CLR,FEW,0.00,559.6,WeatherDisplay:10.37,2013-04-17 23:45:00,
2013-04-17 16:46:00,67.8,-5.7,29.99,SSW,197,0.3,9.2,5,0.00,CLR,FEW,0.00,555.5,WeatherDisplay:10.37,2013-04-17 23:46:00,
2013-04-17 16:47:00,67.8,-5.7,29.99,SSW,197,0.0,0.0,5,0.00,CLR,FEW,0.00,555.5,WeatherDisplay:10.37,2013-04-17 23:47:00,
2013-04-17 16:51:00,68.1,-1.7,29.99,WSW,246,13.2,17.3,6,0.00,CLR,FEW,0.00,538.6,WeatherDisplay:10.37,2013-04-17 23:51:00,
2013-04-17 16:52:00,68.1,-1.7,29.99,WSW,244,13.0,16.1,6,0.00,CLR,FEW,0.00,538.6,WeatherDisplay:10.37,2013-04-17 23:52:00,
2013-04-17 16:53:00,68.1,1.6,29.99,WSW,245,6.8,11.5,7,0.00,CLR,FEW,0.00,535.5,WeatherDisplay:10.37,2013-04-17 23:53:00,
2013-04-17 16:55:00,68.1,-1.7,29.99,SW,231,2.0,0.0,6,0.00,CLR,FEW,0.00,529.2,WeatherDisplay:10.37,2013-04-17 23:55:00,
2013-04-17 16:57:00,68.4,4.7,29.99,SW,232,0.7,5.8,8,0.00,CLR,FEW,0.00,520.8,WeatherDisplay:10.37,2013-04-17 23:57:00,
2013-04-17 16:58:00,68.8,5.0,29.99,SW,232,3.5,9.1,8,0.00,CLR,FEW,0.00,516.6,WeatherDisplay:10.37,2013-04-17 23:58:00,
2013-04-17 17:01:00,68.9,2.2,29.99,WSW,246,10.2,11.7,7,0.00,CLR,FEW,0.00,267.8,WeatherDisplay:10.37,2013-04-18 00:01:00,
2013-04-17 17:03:00,68.8,-1.2,29.99,WSW,244,10.3,16.1,6,0.00,CLR,FEW,0.00,352.8,WeatherDisplay:10.37,2013-04-18 00:03:00,
2013-04-17 17:06:00,68.8,7.6,29.99,WSW,246,0.0,6.9,9,0.00,SCT,FEW,0.00,295.1,WeatherDisplay:10.37,2013-04-18 00:06:00,
2013-04-17 17:08:00,68.9,5.1,29.99,WSW,248,5.4,11.5,8,0.00,SCT,FEW,0.00,324.4,WeatherDisplay:10.37,2013-04-18 00:08:00,
2013-04-17 17:09:00,68.9,5.1,29.99,WSW,246,4.5,11.7,8,0.00,SCT,FEW,0.00,289.8,WeatherDisplay:10.37,2013-04-18 00:09:00,
2013-04-17 17:12:00,68.4,1.8,29.99,WSW,257,0.5,2.6,7,0.00,SCT,FEW,0.00,133.3,WeatherDisplay:10.37,2013-04-18 00:12:00,
2013-04-17 17:14:00,68.3,1.7,29.99,WSW,246,1.0,5.8,7,0.00,BKN,FEW,0.00,114.5,WeatherDisplay:10.37,2013-04-18 00:14:00,
2013-04-17 17:15:00,68.3,1.7,29.99,WSW,244,5.0,0.0,7,0.00,BKN,FEW,0.00,90.3,WeatherDisplay:10.37,2013-04-18 00:15:00,
2013-04-17 17:18:00,67.8,-1.9,29.99,SW,225,5.9,12.7,6,0.00,BKN,FEW,0.00,60.9,WeatherDisplay:10.37,2013-04-18 00:18:00,
2013-04-17 17:19:00,67.6,1.2,29.99,WSW,240,4.6,13.0,7,0.00,BKN,FEW,0.00,51.5,WeatherDisplay:10.37,2013-04-18 00:19:00,
2013-04-17 17:20:00,67.6,1.2,29.99,WSW,246,4.7,17.3,7,0.00,BKN,FEW,0.00,48.3,WeatherDisplay:10.37,2013-04-18 00:20:00,
2013-04-17 17:23:00,67.6,1.2,29.99,WSW,240,0.6,3.5,7,0.00,BKN,FEW,0.00,46.2,WeatherDisplay:10.37,2013-04-18 00:23:00,
2013-04-17 17:24:00,67.6,1.2,29.99,West,260,0.0,1.2,7,0.00,BKN,FEW,0.00,46.2,WeatherDisplay:10.37,2013-04-18 00:24:00,
2013-04-17 17:26:00,67.6,4.1,29.99,WSW,255,0.6,3.5,8,0.00,BKN,FEW,0.00,44.1,WeatherDisplay:10.37,2013-04-18 00:26:00,
2013-04-17 17:29:00,67.8,4.2,29.99,West,262,0.0,0.0,8,0.00,BKN,FEW,0.00,46.2,WeatherDisplay:10.37,2013-04-18 00:29:00,
2013-04-17 17:30:00,67.9,1.4,29.99,WSW,246,2.4,7.8,7,0.00,BKN,FEW,0.00,48.3,WeatherDisplay:10.37,2013-04-18 00:30:00,
2013-04-17 17:31:00,67.8,1.4,30.00,WSW,248,5.9,12.7,7,0.00,BKN,FEW,0.00,49.4,WeatherDisplay:10.37,2013-04-18 00:31:00,
2013-04-17 17:34:00,67.8,4.2,30.00,SW,235,6.4,9.2,8,0.00,BKN,FEW,0.00,219.4,WeatherDisplay:10.37,2013-04-18 00:34:00,
2013-04-17 17:36:00,67.8,4.2,30.00,SW,236,0.1,3.5,8,0.00,SCT,FEW,0.00,348.6,WeatherDisplay:10.37,2013-04-18 00:36:00,
2013-04-17 17:38:00,67.9,1.4,30.00,West,272,1.1,6.9,7,0.00,CLR,FEW,0.00,360.1,WeatherDisplay:10.37,2013-04-18 00:38:00,
2013-04-17 17:39:00,67.9,1.4,30.00,WSW,242,7.8,11.7,7,0.00,CLR,FEW,0.00,345.4,WeatherDisplay:10.37,2013-04-18 00:39:00,
2013-04-17 17:42:00,67.8,1.4,30.00,WSW,243,2.1,9.1,7,0.00,CLR,FEW,0.00,201.6,WeatherDisplay:10.37,2013-04-18 00:42:00,
2013-04-17 17:43:00,67.8,1.4,30.00,WSW,243,2.7,9.2,7,0.00,CLR,FEW,0.00,263.6,WeatherDisplay:10.37,2013-04-18 00:43:00,
2013-04-17 17:44:00,67.8,1.4,30.00,SW,215,5.6,6.9,7,0.00,CLR,FEW,0.00,292.9,WeatherDisplay:10.37,2013-04-18 00:44:00,
2013-04-17 17:47:00,67.6,-2.1,30.00,WSW,247,8.0,13.8,6,0.00,CLR,FEW,0.00,323.4,WeatherDisplay:10.37,2013-04-18 00:47:00,
2013-04-17 17:48:00,67.6,1.2,30.00,WSW,249,3.6,9.1,7,0.00,CLR,FEW,0.00,323.4,WeatherDisplay:10.37,2013-04-18 00:48:00,
2013-04-17 17:49:00,67.6,1.2,30.00,WSW,245,7.8,11.5,7,0.00,CLR,FEW,0.00,317.1,WeatherDisplay:10.37,2013-04-18 00:49:00,
2013-04-17 17:50:00,67.4,1.1,30.00,WSW,246,7.0,11.5,7,0.00,CLR,FEW,0.00,317.1,WeatherDisplay:10.37,2013-04-18 00:50:00,
2013-04-17 17:52:00,67.4,1.1,30.00,West,261,10.0,12.7,7,0.00,CLR,FEW,0.00,204.8,WeatherDisplay:10.37,2013-04-18 00:52:00,
2013-04-17 17:53:00,67.4,1.1,30.00,WSW,242,6.4,13.8,7,0.00,CLR,FEW,0.00,204.8,WeatherDisplay:10.37,2013-04-18 00:53:00,
2013-04-17 17:55:00,67.4,3.9,30.00,WNW,290,1.6,6.9,8,0.00,CLR,FEW,0.00,118.7,WeatherDisplay:10.37,2013-04-18 00:55:00,
2013-04-17 17:57:00,67.4,1.1,30.00,SW,236,4.6,12.7,7,0.00,SCT,FEW,0.00,256.2,WeatherDisplay:10.37,2013-04-18 00:57:00,
2013-04-17 17:58:00,67.3,1.0,30.00,SW,236,9.3,11.5,7,0.00,FEW,,0.00,270.9,WeatherDisplay:10.37,2013-04-18 00:58:00,
2013-04-17 17:59:00,67.3,1.0,30.00,WSW,254,6.4,10.4,7,0.00,FEW,,0.00,282.4,WeatherDisplay:10.37,2013-04-18 00:59:00,
2013-04-17 18:01:00,67.3,3.9,30.00,WSW,246,0.4,6.9,8,0.00,CLR,FEW,0.00,275.1,WeatherDisplay:10.37,2013-04-18 01:01:00,
2013-04-17 18:03:00,67.4,3.9,30.00,WSW,244,0.6,5.2,8,0.00,CLR,FEW,0.00,269.9,WeatherDisplay:10.37,2013-04-18 01:03:00,
2013-04-17 18:04:00,67.6,4.1,30.00,WSW,244,1.0,5.8,8,0.00,CLR,FEW,0.00,265.6,WeatherDisplay:10.37,2013-04-18 01:04:00,
2013-04-17 18:05:00,67.6,6.7,30.00,WSW,244,0.3,5.8,9,0.00,CLR,FEW,0.00,265.6,WeatherDisplay:10.37,2013-04-18 01:05:00,
2013-04-17 18:08:00,67.8,1.4,30.00,WSW,252,5.2,6.9,7,0.00,CLR,FEW,0.00,248.8,WeatherDisplay:10.37,2013-04-18 01:08:00,
2013-04-17 18:10:00,67.6,1.2,30.00,WSW,252,3.0,9.2,7,0.00,CLR,FEW,0.00,241.5,WeatherDisplay:10.37,2013-04-18 01:10:00,
2013-04-17 18:12:00,67.4,1.1,30.00,WSW,251,4.6,8.1,7,0.00,CLR,FEW,0.00,234.2,WeatherDisplay:10.37,2013-04-18 01:12:00,
2013-04-17 18:13:00,67.3,1.0,30.00,WSW,244,4.9,9.2,7,0.00,CLR,FEW,0.00,232.1,WeatherDisplay:10.37,2013-04-18 01:13:00,
2013-04-17 18:17:00,66.9,3.6,30.00,WSW,249,7.0,8.1,8,0.00,CLR,FEW,0.00,217.3,WeatherDisplay:10.37,2013-04-18 01:17:00,
2013-04-17 18:18:00,66.9,0.7,30.00,WSW,245,7.4,14.3,7,0.00,CLR,FEW,0.00,214.2,WeatherDisplay:10.37,2013-04-18 01:18:00,
2013-04-17 18:19:00,66.9,0.7,30.00,WSW,248,8.4,13.8,7,0.00,CLR,FEW,0.00,210.0,WeatherDisplay:10.37,2013-04-18 01:19:00,
2013-04-17 18:22:00,66.6,0.5,30.00,WSW,238,4.4,10.4,7,0.00,CLR,FEW,0.00,199.5,WeatherDisplay:10.37,2013-04-18 01:22:00,
2013-04-17 18:23:00,66.6,0.5,30.00,WSW,240,3.2,9.1,7,0.00,CLR,FEW,0.00,197.4,WeatherDisplay:10.37,2013-04-18 01:23:00,
2013-04-17 18:24:00,66.6,0.5,30.00,West,270,4.8,9.2,7,0.00,CLR,FEW,0.00,194.3,WeatherDisplay:10.37,2013-04-18 01:24:00,
2013-04-17 18:25:00,66.6,0.5,30.00,West,261,4.0,10.4,7,0.00,CLR,FEW,0.00,190.1,WeatherDisplay:10.37,2013-04-18 01:25:00,
2013-04-17 18:27:00,66.3,0.2,30.00,West,279,10.7,13.0,7,0.00,CLR,FEW,0.00,179.6,WeatherDisplay:10.37,2013-04-18 01:27:00,
2013-04-17 18:28:00,66.1,0.1,30.00,SW,229,11.5,16.1,7,0.00,CLR,FEW,0.00,175.3,WeatherDisplay:10.37,2013-04-18 01:28:00,
2013-04-17 18:29:00,66.0,0.0,30.00,West,261,6.5,19.6,7,0.00,CLR,FEW,0.00,171.2,WeatherDisplay:10.37,2013-04-18 01:29:00,
2013-04-17 18:30:00,66.0,0.0,30.00,SW,230,4.3,11.7,7,0.00,CLR,FEW,0.00,170.1,WeatherDisplay:10.37,2013-04-18 01:30:00,
2013-04-17 18:31:00,65.8,-0.1,30.00,WNW,285,9.9,13.8,7,0.00,CLR,FEW,0.00,168.0,WeatherDisplay:10.37,2013-04-18 01:31:00,
2013-04-17 18:33:00,65.6,-0.3,30.00,WSW,246,11.4,12.7,7,0.00,CLR,FEW,0.00,160.7,WeatherDisplay:10.37,2013-04-18 01:33:00,
2013-04-17 18:34:00,65.6,-0.3,30.00,SW,229,6.3,9.2,7,0.00,CLR,FEW,0.00,155.4,WeatherDisplay:10.37,2013-04-18 01:34:00,
2013-04-17 18:36:00,65.5,2.5,30.00,WSW,247,4.5,13.8,8,0.00,CLR,FEW,0.00,149.1,WeatherDisplay:10.37,2013-04-18 01:36:00,
2013-04-17 18:37:00,65.3,-0.5,30.00,WSW,241,15.0,22.1,7,0.00,CLR,FEW,0.00,143.8,WeatherDisplay:10.37,2013-04-18 01:37:00,
2013-04-17 18:38:00,65.2,-0.6,30.00,WSW,248,5.5,19.6,7,0.00,CLR,FEW,0.00,141.8,WeatherDisplay:10.37,2013-04-18 01:38:00,
2013-04-17 18:40:00,65.2,-0.6,30.00,WSW,245,8.0,0.0,7,0.00,CLR,FEW,0.00,136.5,WeatherDisplay:10.37,2013-04-18 01:40:00,
2013-04-17 18:43:00,65.0,-0.7,30.00,West,261,0.3,3.5,7,0.00,CLR,FEW,0.00,123.9,WeatherDisplay:10.37,2013-04-18 01:43:00,
2013-04-17 18:44:00,65.0,-0.7,30.00,West,263,1.8,5.8,7,0.00,CLR,FEW,0.00,119.7,WeatherDisplay:10.37,2013-04-18 01:44:00,
2013-04-17 18:45:00,65.0,-0.7,30.00,WSW,257,0.2,1.2,7,0.00,CLR,FEW,0.00,118.7,WeatherDisplay:10.37,2013-04-18 01:45:00,
2013-04-17 18:46:00,65.0,-0.7,30.00,West,262,1.9,5.8,7,0.00,CLR,FEW,0.00,114.5,WeatherDisplay:10.37,2013-04-18 01:46:00,
2013-04-17 18:48:00,64.8,2.0,30.00,West,262,0.7,5.8,8,0.00,CLR,FEW,0.00,102.9,WeatherDisplay:10.37,2013-04-18 01:48:00,
2013-04-17 18:49:00,64.8,-0.9,30.00,WSW,251,2.1,9.2,7,0.00,CLR,FEW,0.00,101.8,WeatherDisplay:10.37,2013-04-18 01:49:00,
2013-04-17 18:50:00,64.7,1.9,30.00,West,263,3.0,6.9,8,0.00,CLR,FEW,0.00,97.7,WeatherDisplay:10.37,2013-04-18 01:50:00,
2013-04-17 18:52:00,64.7,-0.9,30.00,West,259,1.7,6.9,7,0.00,CLR,FEW,0.00,90.3,WeatherDisplay:10.37,2013-04-18 01:52:00,
2013-04-17 18:53:00,64.5,-1.1,30.00,West,263,0.5,3.5,7,0.00,CLR,FEW,0.00,85.0,WeatherDisplay:10.37,2013-04-18 01:53:00,
2013-04-17 18:54:00,64.5,1.8,30.00,SW,229,0.9,6.9,8,0.00,CLR,FEW,0.00,72.5,WeatherDisplay:10.37,2013-04-18 01:54:00,
2013-04-17 18:55:00,64.5,1.8,30.00,WSW,252,1.0,0.0,8,0.00,CLR,FEW,0.00,77.7,WeatherDisplay:10.37,2013-04-18 01:55:00,
2013-04-17 18:58:00,64.3,1.6,30.00,WSW,250,1.4,3.5,8,0.00,CLR,FEW,0.00,66.2,WeatherDisplay:10.37,2013-04-18 01:58:00,
2013-04-17 18:59:00,64.2,1.5,30.00,WSW,244,2.2,8.1,8,0.00,CLR,FEW,0.00,56.7,WeatherDisplay:10.37,2013-04-18 01:59:00,
2013-04-17 19:00:00,64.2,1.5,30.00,WSW,243,2.7,9.2,8,0.00,CLR,FEW,0.00,48.3,WeatherDisplay:10.37,2013-04-18 02:00:00,
2013-04-17 19:01:00,64.0,1.4,30.00,WSW,257,3.3,8.1,8,0.00,FEW,,0.00,42.0,WeatherDisplay:10.37,2013-04-18 02:01:00,
2013-04-17 19:03:00,63.9,1.3,30.00,WSW,247,3.9,5.2,8,0.00,CLR,FEW,0.00,38.9,WeatherDisplay:10.37,2013-04-18 02:03:00,
2013-04-17 19:04:00,63.9,1.3,30.00,WSW,245,2.8,11.5,8,0.00,FEW,,0.00,38.9,WeatherDisplay:10.37,2013-04-18 02:04:00,
2013-04-17 19:05:00,63.9,1.3,30.00,WSW,244,4.6,8.1,8,0.00,CLR,FEW,0.00,34.6,WeatherDisplay:10.37,2013-04-18 02:05:00,
2013-04-17 19:07:00,63.7,1.2,30.00,WSW,252,0.7,8.1,8,0.00,SCT,FEW,0.00,26.3,WeatherDisplay:10.37,2013-04-18 02:07:00,
2013-04-17 19:08:00,63.7,3.7,30.00,WSW,258,0.0,6.9,9,0.00,SCT,FEW,0.00,22.1,WeatherDisplay:10.37,2013-04-18 02:08:00,
2013-04-17 19:10:00,63.4,0.9,30.00,WSW,255,4.3,16.1,8,0.00,SCT,FEW,0.00,14.7,WeatherDisplay:10.37,2013-04-18 02:10:00,
2013-04-17 19:11:00,63.4,3.5,30.00,West,271,0.1,11.5,9,0.00,BKN,FEW,0.00,12.6,WeatherDisplay:10.37,2013-04-18 02:11:00,
2013-04-17 19:12:00,63.4,0.9,30.00,WSW,250,0.2,2.3,8,0.00,BKN,FEW,0.00,12.6,WeatherDisplay:10.37,2013-04-18 02:12:00,
2013-04-17 19:13:00,63.2,3.3,30.00,WSW,248,4.5,13.0,9,0.00,BKN,FEW,0.00,11.6,WeatherDisplay:10.37,2013-04-18 02:13:00,
2013-04-17 19:15:00,62.9,5.4,30.00,WSW,251,7.2,16.1,10,0.00,BKN,FEW,0.00,9.4,WeatherDisplay:10.37,2013-04-18 02:15:00,
2013-04-17 19:16:00,62.9,5.4,30.01,WSW,243,5.3,16.1,10,0.00,SCT,FEW,0.00,7.3,WeatherDisplay:10.37,2013-04-18 02:16:00,
2013-04-17 19:19:00,62.6,7.3,30.01,WSW,240,9.4,9.4,11,0.00,SCT,FEW,0.00,5.3,WeatherDisplay:10.37,2013-04-18 02:19:00,
2013-04-17 19:20:00,62.3,7.0,30.01,WSW,242,12.2,12.2,11,0.00,SCT,FEW,0.00,5.3,WeatherDisplay:10.37,2013-04-18 02:20:00,
2013-04-17 19:21:00,62.1,8.8,30.01,WSW,238,10.8,13.8,12,0.00,FEW,,0.00,5.3,WeatherDisplay:10.37,2013-04-18 02:21:00,
2013-04-17 19:23:00,61.8,10.4,30.01,WSW,248,10.1,13.8,13,0.00,OVC,FEW,0.00,0.0,WeatherDisplay:10.37,2013-04-18 02:23:00,
2013-04-17 19:24:00,61.6,10.2,30.01,WSW,245,10.1,10.4,13,0.00,OVC,FEW,0.00,0.0,WeatherDisplay:10.37,2013-04-18 02:24:00,
2013-04-17 19:25:00,61.5,10.1,30.01,WSW,242,12.1,12.1,13,0.00,OVC,FEW,0.00,0.0,WeatherDisplay:10.37,2013-04-18 02:25:00,
2013-04-17 19:27:00,61.3,10.0,30.01,SW,224,4.8,6.9,13,0.00,OVC,FEW,0.00,0.0,WeatherDisplay:10.37,2013-04-18 02:27:00,
2013-04-17 19:29:00,61.0,11.4,30.01,SW,236,5.3,8.1,14,0.00,OVC,FEW,0.00,0.0,WeatherDisplay:10.37,2013-04-18 02:29:00,
2013-04-17 19:30:00,60.9,12.9,30.01,SW,235,4.6,5.8,15,0.00,OVC,FEW,0.00,0.0,WeatherDisplay:10.37,2013-04-18 02:30:00,
2013-04-17 19:32:00,60.4,13.9,30.02,SSW,208,4.4,5.8,16,0.00,OVC,FEW,0.00,0.0,WeatherDisplay:10.37,2013-04-18 02:32:00,
2013-04-17 19:35:00,60.1,13.7,30.02,SW,236,7.0,0.0,16,0.00,OVC,FEW,0.00,0.0,WeatherDisplay:10.37,2013-04-18 02:35:00,
2013-04-17 19:36:00,59.9,13.5,30.02,SSW,193,6.9,9.2,16,0.00,OVC,FEW,0.00,0.0,WeatherDisplay:10.37,2013-04-18 02:36:00,
2013-04-17 19:37:00,59.9,14.9,30.02,SW,215,4.8,6.9,17,0.00,OVC,FEW,0.00,0.0,WeatherDisplay:10.37,2013-04-18 02:37:00,
2013-04-17 19:40:00,59.6,14.7,30.02,SSW,213,0.0,5.8,17,0.00,OVC,FEW,0.00,0.0,WeatherDisplay:10.37,2013-04-18 02:40:00,
2013-04-17 19:41:00,59.3,14.4,30.02,SW,214,0.0,0.0,17,0.00,OVC,FEW,0.00,0.0,WeatherDisplay:10.37,2013-04-18 02:41:00,
2013-04-17 19:42:00,59.3,14.4,30.02,SSW,211,0.0,0.0,17,0.00,OVC,FEW,0.00,0.0,WeatherDisplay:10.37,2013-04-18 02:42:00,
2013-04-17 19:43:00,59.2,14.3,30.02,SSW,208,0.0,0.0,17,0.00,OVC,FEW,0.00,0.0,WeatherDisplay:10.37,2013-04-18 02:43:00,
2013-04-17 19:45:00,59.2,14.3,30.02,SW,214,0.0,0.0,17,0.00,OVC,FEW,0.00,0.0,WeatherDisplay:10.37,2013-04-18 02:45:00,
2013-04-17 19:48:00,59.2,13.0,30.03,SW,222,0.0,0.0,16,0.00,OVC,FEW,0.00,0.0,WeatherDisplay:10.37,2013-04-18 02:48:00,
2013-04-17 19:49:00,59.2,13.0,30.03,SW,218,0.0,0.0,16,0.00,OVC,FEW,0.00,0.0,WeatherDisplay:10.37,2013-04-18 02:49:00,
2013-04-17 19:50:00,59.2,14.3,30.03,SSW,202,0.0,0.0,17,0.00,OVC,FEW,0.00,0.0,WeatherDisplay:10.37,2013-04-18 02:50:00,
2013-04-17 19:53:00,59.0,14.2,30.03,South,179,0.0,0.0,17,0.00,CLR,FEW,0.00,0.0,WeatherDisplay:10.37,2013-04-18 02:53:00,
2013-04-17 19:54:00,59.0,14.2,30.03,South,188,0.0,0.0,17,0.00,CLR,FEW,0.00,0.0,WeatherDisplay:10.37,2013-04-18 02:54:00,
2013-04-17 19:55:00,58.9,14.1,30.03,SSW,201,0.0,0.0,17,0.00,CLR,FEW,0.00,0.0,WeatherDisplay:10.37,2013-04-18 02:55:00,
2013-04-17 19:59:00,59.0,14.2,30.03,SSW,201,0.0,0.0,17,0.00,CLR,FEW,0.00,0.0,WeatherDisplay:10.37,2013-04-18 02:59:00,
2013-04-17 20:01:00,58.9,14.1,30.04,SSE,159,0.0,0.0,17,0.00,CLR,FEW,0.00,0.0,WeatherDisplay:10.37,2013-04-18 03:01:00,
2013-04-17 20:02:00,58.7,15.2,30.04,SE,141,0.0,0.0,18,0.00,CLR,FEW,0.00,0.0,WeatherDisplay:10.37,2013-04-18 03:02:00,
2013-04-17 20:04:00,58.3,16.2,30.04,SE,140,0.0,0.0,19,0.00,CLR,FEW,0.00,0.0,WeatherDisplay:10.37,2013-04-18 03:04:00,
2013-04-17 20:05:00,58.3,16.2,30.04,SSE,163,0.0,0.0,19,0.00,CLR,FEW,0.00,0.0,WeatherDisplay:10.37,2013-04-18 03:05:00,
2013-04-17 20:07:00,58.0,14.7,30.04,SE,140,0.0,0.0,18,0.00,CLR,FEW,0.00,0.0,WeatherDisplay:10.37,2013-04-18 03:07:00,
2013-04-17 20:09:00,57.6,17.9,30.04,SE,141,0.0,0.0,21,0.00,CLR,FEW,0.00,0.0,WeatherDisplay:10.37,2013-04-18 03:09:00,
2013-04-17 20:10:00,57.5,16.7,30.04,SE,140,0.0,0.0,20,0.00,CLR,FEW,0.00,0.0,WeatherDisplay:10.37,2013-04-18 03:10:00,
2013-04-17 20:11:00,57.5,15.5,30.04,SE,140,0.0,0.0,19,0.00,CLR,FEW,0.00,0.0,WeatherDisplay:10.37,2013-04-18 03:11:00,
2013-04-17 20:12:00,57.3,14.1,30.04,SE,141,0.0,0.0,18,0.00,CLR,FEW,0.00,0.0,WeatherDisplay:10.37,2013-04-18 03:12:00,
2013-04-17 20:13:00,57.3,14.1,30.04,SE,141,0.0,0.0,18,0.00,CLR,FEW,0.00,0.0,WeatherDisplay:10.37,2013-04-18 03:13:00,
2013-04-17 20:15:00,57.3,14.1,30.04,SE,140,0.0,0.0,18,0.00,CLR,FEW,0.00,0.0,WeatherDisplay:10.37,2013-04-18 03:15:00,
2013-04-17 20:16:00,57.3,15.3,30.06,SE,141,0.0,0.0,19,0.00,CLR,FEW,0.00,0.0,WeatherDisplay:10.37,2013-04-18 03:16:00,
2013-04-17 20:18:00,57.3,14.1,30.06,SE,141,0.0,0.0,18,0.00,CLR,FEW,0.00,0.0,WeatherDisplay:10.37,2013-04-18 03:18:00,
2013-04-17 20:19:00,57.3,14.1,30.06,SE,141,0.0,0.0,18,0.00,CLR,FEW,0.00,0.0,WeatherDisplay:10.37,2013-04-18 03:19:00,
2013-04-17 20:20:00,57.3,14.1,30.06,SE,141,0.0,0.0,18,0.00,CLR,FEW,0.00,0.0,WeatherDisplay:10.37,2013-04-18 03:20:00,
2013-04-17 20:21:00,57.3,15.3,30.06,SE,141,0.0,0.0,19,0.00,CLR,FEW,0.00,0.0,WeatherDisplay:10.37,2013-04-18 03:21:00,
2013-04-17 20:22:00,57.2,15.2,30.06,SE,141,0.0,0.0,19,0.00,CLR,FEW,0.00,0.0,WeatherDisplay:10.37,2013-04-18 03:22:00,
2013-04-17 20:24:00,57.2,14.0,30.06,SE,141,0.0,0.0,18,0.00,CLR,FEW,0.00,0.0,WeatherDisplay:10.37,2013-04-18 03:24:00,
2013-04-17 20:25:00,57.2,15.2,30.06,SE,141,0.0,0.0,19,0.00,CLR,FEW,0.00,0.0,WeatherDisplay:10.37,2013-04-18 03:25:00,
2013-04-17 20:26:00,57.2,14.0,30.06,SE,141,0.0,0.0,18,0.00,CLR,FEW,0.00,0.0,WeatherDisplay:10.37,2013-04-18 03:26:00,
2013-04-17 20:27:00,57.2,14.0,30.06,SE,141,0.0,0.0,18,0.00,CLR,FEW,0.00,0.0,WeatherDisplay:10.37,2013-04-18 03:27:00,
2013-04-17 20:29:00,57.3,12.8,30.06,WSW,238,0.0,0.0,17,0.00,CLR,FEW,0.00,0.0,WeatherDisplay:10.37,2013-04-18 03:29:00,
2013-04-17 20:30:00,57.5,13.0,30.06,WSW,238,0.0,0.0,17,0.00,CLR,FEW,0.00,0.0,WeatherDisplay:10.37,2013-04-18 03:30:00,
2013-04-17 20:31:00,57.5,14.3,30.07,WSW,238,0.0,0.0,18,0.00,CLR,FEW,0.00,0.0,WeatherDisplay:10.37,2013-04-18 03:31:00,
2013-04-17 20:32:00,57.5,14.3,30.07,WSW,238,0.0,0.0,18,0.00,CLR,FEW,0.00,0.0,WeatherDisplay:10.37,2013-04-18 03:32:00,
2013-04-17 20:34:00,57.5,15.5,30.07,WSW,238,0.0,0.0,19,0.00,CLR,FEW,0.00,0.0,WeatherDisplay:10.37,2013-04-18 03:34:00,
2013-04-17 20:35:00,57.3,15.3,30.07,WSW,238,0.0,0.0,19,0.00,CLR,FEW,0.00,0.0,WeatherDisplay:10.37,2013-04-18 03:35:00,
2013-04-17 20:36:00,57.3,15.3,30.07,WSW,238,0.0,0.0,19,0.00,CLR,FEW,0.00,0.0,WeatherDisplay:10.37,2013-04-18 03:36:00,
2013-04-17 20:39:00,57.2,15.2,30.07,WSW,238,0.0,0.0,19,0.00,CLR,FEW,0.00,0.0,WeatherDisplay:10.37,2013-04-18 03:39:00,
2013-04-17 20:40:00,57.2,15.3,30.07,WSW,238,0.0,0.0,19,0.00,CLR,FEW,0.00,0.0,WeatherDisplay:10.37,2013-04-18 03:40:00,
2013-04-17 20:41:00,57.2,14.0,30.07,WSW,238,0.0,0.0,18,0.00,CLR,FEW,0.00,0.0,WeatherDisplay:10.37,2013-04-18 03:41:00,
2013-04-17 20:44:00,57.0,15.1,30.07,WSW,238,0.0,0.0,19,0.00,CLR,FEW,0.00,0.0,WeatherDisplay:10.37,2013-04-18 03:44:00,
2013-04-17 20:45:00,57.0,15.1,30.07,WSW,238,0.0,0.0,19,0.00,CLR,FEW,0.00,0.0,WeatherDisplay:10.37,2013-04-18 03:45:00,
2013-04-17 20:46:00,57.0,15.1,30.07,WSW,238,0.0,0.0,19,0.00,CLR,FEW,0.00,0.0,WeatherDisplay:10.37,2013-04-18 03:46:00,
2013-04-17 20:47:00,57.0,15.1,30.07,WSW,238,0.0,0.0,19,0.00,CLR,FEW,0.00,0.0,WeatherDisplay:10.37,2013-04-18 03:47:00,
2013-04-17 20:49:00,56.9,15.0,30.07,WSW,238,0.0,0.0,19,0.00,CLR,FEW,0.00,0.0,WeatherDisplay:10.37,2013-04-18 03:49:00,
2013-04-17 20:50:00,56.7,16.0,30.07,WSW,238,0.0,0.0,20,0.00,CLR,FEW,0.00,0.0,WeatherDisplay:10.37,2013-04-18 03:50:00,
2013-04-17 20:51:00,56.7,16.0,30.07,WSW,238,0.0,0.0,20,0.00,CLR,FEW,0.00,0.0,WeatherDisplay:10.37,2013-04-18 03:51:00,
2013-04-17 20:54:00,56.2,16.7,30.07,WSW,238,0.0,0.0,21,0.00,CLR,FEW,0.00,0.0,WeatherDisplay:10.37,2013-04-18 03:54:00,
2013-04-17 20:55:00,56.2,16.7,30.07,WSW,238,0.0,0.0,21,0.00,CLR,FEW,0.00,0.0,WeatherDisplay:10.37,2013-04-18 03:55:00,
2013-04-17 20:56:00,56.0,16.6,30.07,WSW,238,0.0,0.0,21,0.00,CLR,FEW,0.00,0.0,WeatherDisplay:10.37,2013-04-18 03:56:00,
2013-04-17 20:57:00,55.9,17.6,30.07,WSW,238,0.0,0.0,22,0.00,CLR,FEW,0.00,0.0,WeatherDisplay:10.37,2013-04-18 03:57:00,
2013-04-17 20:59:00,55.6,17.3,30.07,WSW,238,0.0,0.0,22,0.00,CLR,FEW,0.00,0.0,WeatherDisplay:10.37,2013-04-18 03:59:00,
2013-04-17 21:00:00,55.4,17.1,30.07,WSW,238,0.0,0.0,22,0.00,CLR,FEW,0.00,0.0,WeatherDisplay:10.37,2013-04-18 04:00:00,
2013-04-17 21:01:00,55.3,17.0,30.08,WSW,238,0.0,0.0,22,0.00,CLR,FEW,0.00,0.0,WeatherDisplay:10.37,2013-04-18 04:01:00,
2013-04-17 21:02:00,55.1,15.8,30.08,WSW,238,0.0,0.0,21,0.00,CLR,FEW,0.00,0.0,WeatherDisplay:10.37,2013-04-18 04:02:00,
2013-04-17 21:06:00,54.7,16.5,30.08,WSW,238,0.0,0.0,22,0.00,CLR,FEW,0.00,0.0,WeatherDisplay:10.37,2013-04-18 04:06:00,
2013-04-17 21:07:00,54.7,16.5,30.08,WSW,238,0.0,0.0,22,0.00,CLR,FEW,0.00,0.0,WeatherDisplay:10.37,2013-04-18 04:07:00,
2013-04-17 21:12:00,54.2,18.1,30.08,WSW,238,0.0,0.0,24,0.00,CLR,FEW,0.00,0.0,WeatherDisplay:10.37,2013-04-18 04:12:00,
2013-04-17 21:13:00,54.1,18.1,30.08,WSW,238,0.0,0.0,24,0.00,CLR,FEW,0.00,0.0,WeatherDisplay:10.37,2013-04-18 04:13:00,
2013-04-17 21:14:00,53.9,17.9,30.08,WSW,238,0.0,0.0,24,0.00,CLR,FEW,0.00,0.0,WeatherDisplay:10.37,2013-04-18 04:14:00,
2013-04-17 21:17:00,53.5,17.5,30.09,WSW,238,0.0,0.0,24,0.00,CLR,FEW,0.00,0.0,WeatherDisplay:10.37,2013-04-18 04:17:00,
2013-04-17 21:19:00,53.3,18.3,30.09,North,355,0.0,0.0,25,0.00,CLR,FEW,0.00,0.0,WeatherDisplay:10.37,2013-04-18 04:19:00,
2013-04-17 21:20:00,53.2,18.2,30.09,North,351,0.0,0.0,25,0.00,CLR,FEW,0.00,0.0,WeatherDisplay:10.37,2013-04-18 04:20:00,
2013-04-17 21:22:00,53.1,16.2,30.09,North,350,0.0,0.0,23,0.00,CLR,FEW,0.00,0.0,WeatherDisplay:10.37,2013-04-18 04:22:00,
2013-04-17 21:23:00,53.1,16.2,30.09,North,350,0.0,0.0,23,0.00,CLR,FEW,0.00,0.0,WeatherDisplay:10.37,2013-04-18 04:23:00,
2013-04-17 21:25:00,52.9,16.1,30.09,North,360,0.0,0.0,23,0.00,CLR,FEW,0.00,0.0,WeatherDisplay:10.37,2013-04-18 04:25:00,
2013-04-17 21:26:00,52.9,16.1,30.09,North,360,0.0,0.0,23,0.00,CLR,FEW,0.00,0.0,WeatherDisplay:10.37,2013-04-18 04:26:00,
2013-04-17 21:27:00,52.8,16.0,30.09,North,360,0.0,0.0,23,0.00,CLR,FEW,0.00,0.0,WeatherDisplay:10.37,2013-04-18 04:27:00,
2013-04-17 21:28:00,52.8,16.0,30.09,North,360,0.0,0.0,23,0.00,CLR,FEW,0.00,0.0,WeatherDisplay:10.37,2013-04-18 04:28:00,
2013-04-17 21:30:00,52.5,15.7,30.09,North,360,0.0,0.0,23,0.00,CLR,FEW,0.00,0.0,WeatherDisplay:10.37,2013-04-18 04:30:00,
2013-04-17 21:31:00,52.5,14.7,30.09,North,360,0.0,0.0,22,0.00,CLR,FEW,0.00,0.0,WeatherDisplay:10.37,2013-04-18 04:31:00,
2013-04-17 21:32:00,52.3,15.5,30.09,North,360,0.0,0.0,23,0.00,CLR,FEW,0.00,0.0,WeatherDisplay:10.37,2013-04-18 04:32:00,
2013-04-17 21:33:00,52.3,15.5,30.09,North,360,0.0,0.0,23,0.00,CLR,FEW,0.00,0.0,WeatherDisplay:10.37,2013-04-18 04:33:00,
2013-04-17 21:34:00,52.2,15.5,30.09,North,360,0.0,0.0,23,0.00,CLR,FEW,0.00,0.0,WeatherDisplay:10.37,2013-04-18 04:34:00,
2013-04-17 21:35:00,51.9,16.2,30.09,North,360,0.0,0.0,24,0.00,CLR,FEW,0.00,0.0,WeatherDisplay:10.37,2013-04-18 04:35:00,
2013-04-17 21:37:00,51.3,16.6,30.09,North,5,0.0,0.0,25,0.00,CLR,FEW,0.00,0.0,WeatherDisplay:10.37,2013-04-18 04:37:00,
2013-04-17 21:40:00,51.0,15.4,30.09,North,5,0.0,0.0,24,0.00,CLR,FEW,0.00,0.0,WeatherDisplay:10.37,2013-04-18 04:40:00,
2013-04-17 21:41:00,51.0,16.4,30.09,North,5,0.0,0.0,25,0.00,CLR,FEW,0.00,0.0,WeatherDisplay:10.37,2013-04-18 04:41:00,
2013-04-17 21:43:00,51.0,14.4,30.09,North,5,0.0,0.0,23,0.00,CLR,FEW,0.00,0.0,WeatherDisplay:10.37,2013-04-18 04:43:00,
2013-04-17 21:45:00,51.1,15.5,30.09,North,5,0.0,0.0,24,0.00,CLR,FEW,0.00,0.0,WeatherDisplay:10.37,2013-04-18 04:45:00,
2013-04-17 21:46:00,51.3,14.7,30.10,North,5,0.0,0.0,23,0.00,CLR,FEW,0.00,0.0,WeatherDisplay:10.37,2013-04-18 04:46:00,
2013-04-17 21:49:00,51.4,13.8,30.10,North,5,0.0,0.0,22,0.00,CLR,FEW,0.00,0.0,WeatherDisplay:10.37,2013-04-18 04:49:00,
2013-04-17 21:50:00,51.4,13.8,30.10,North,5,0.0,0.0,22,0.00,CLR,FEW,0.00,0.0,WeatherDisplay:10.37,2013-04-18 04:50:00,
2013-04-17 21:51:00,51.4,14.8,30.10,North,5,0.0,0.0,23,0.00,CLR,FEW,0.00,0.0,WeatherDisplay:10.37,2013-04-18 04:51:00,
2013-04-17 21:53:00,51.4,14.8,30.10,North,5,0.0,0.0,23,0.00,CLR,FEW,0.00,0.0,WeatherDisplay:10.37,2013-04-18 04:53:00,
2013-04-17 21:54:00,51.3,14.7,30.10,North,5,0.0,0.0,23,0.00,CLR,FEW,0.00,0.0,WeatherDisplay:10.37,2013-04-18 04:54:00,
2013-04-17 21:55:00,51.1,15.5,30.10,North,5,0.0,0.0,24,0.00,CLR,FEW,0.00,0.0,WeatherDisplay:10.37,2013-04-18 04:55:00,
2013-04-17 21:56:00,51.0,15.4,30.10,North,5,0.0,0.0,24,0.00,CLR,FEW,0.00,0.0,WeatherDisplay:10.37,2013-04-18 04:56:00,
2013-04-17 21:57:00,50.8,15.2,30.10,North,5,0.0,0.0,24,0.00,CLR,FEW,0.00,0.0,WeatherDisplay:10.37,2013-04-18 04:57:00,
2013-04-17 21:58:00,50.5,15.0,30.10,North,5,0.0,0.0,24,0.00,CLR,FEW,0.00,0.0,WeatherDisplay:10.37,2013-04-18 04:58:00,
2013-04-17 22:00:00,50.4,13.9,30.10,North,5,0.0,0.0,23,0.00,CLR,FEW,0.00,0.0,WeatherDisplay:10.37,2013-04-18 05:00:00,
2013-04-17 22:02:00,50.2,14.7,30.10,North,5,0.0,0.0,24,0.00,CLR,FEW,0.00,0.0,WeatherDisplay:10.37,2013-04-18 05:02:00,
2013-04-17 22:03:00,50.2,13.8,30.10,North,5,0.0,0.0,23,0.00,CLR,FEW,0.00,0.0,WeatherDisplay:10.37,2013-04-18 05:03:00,
2013-04-17 22:05:00,50.2,13.8,30.10,North,5,0.0,0.0,23,0.00,CLR,FEW,0.00,0.0,WeatherDisplay:10.37,2013-04-18 05:05:00,
2013-04-17 22:06:00,50.2,13.8,30.10,North,5,0.0,0.0,23,0.00,CLR,FEW,0.00,0.0,WeatherDisplay:10.37,2013-04-18 05:06:00,
2013-04-17 22:07:00,50.2,12.8,30.10,North,5,0.0,0.0,22,0.00,CLR,FEW,0.00,0.0,WeatherDisplay:10.37,2013-04-18 05:07:00,
2013-04-17 22:08:00,50.2,12.8,30.10,North,5,0.0,0.0,22,0.00,CLR,FEW,0.00,0.0,WeatherDisplay:10.37,2013-04-18 05:08:00,
2013-04-17 22:09:00,50.2,12.8,30.10,North,5,0.0,0.0,22,0.00,CLR,FEW,0.00,0.0,WeatherDisplay:10.37,2013-04-18 05:09:00,
2013-04-17 22:10:00,50.2,12.8,30.10,North,5,0.0,0.0,22,0.00,CLR,FEW,0.00,0.0,WeatherDisplay:10.37,2013-04-18 05:10:00,
2013-04-17 22:11:00,50.4,13.9,30.10,North,5,0.0,0.0,23,0.00,CLR,FEW,0.00,0.0,WeatherDisplay:10.37,2013-04-18 05:11:00,
2013-04-17 22:14:00,50.5,13.0,30.10,North,5,0.0,0.0,22,0.00,CLR,FEW,0.00,0.0,WeatherDisplay:10.37,2013-04-18 05:14:00,
2013-04-17 22:16:00,50.5,13.0,30.10,North,5,0.0,0.0,22,0.00,CLR,FEW,0.00,0.0,WeatherDisplay:10.37,2013-04-18 05:16:00,
2013-04-17 22:18:00,50.2,14.7,30.10,ENE,74,0.0,0.0,24,0.00,CLR,FEW,0.00,0.0,WeatherDisplay:10.37,2013-04-18 05:18:00,
2013-04-17 22:19:00,49.8,15.3,30.10,ENE,74,0.0,0.0,25,0.00,CLR,FEW,0.00,0.0,WeatherDisplay:10.37,2013-04-18 05:19:00,
2013-04-17 22:21:00,49.4,14.1,30.10,ENE,74,0.0,0.0,24,0.00,CLR,FEW,0.00,0.0,WeatherDisplay:10.37,2013-04-18 05:21:00,
2013-04-17 22:23:00,49.2,13.9,30.10,ENE,74,0.0,0.0,24,0.00,CLR,FEW,0.00,0.0,WeatherDisplay:10.37,2013-04-18 05:23:00,
2013-04-17 22:25:00,49.2,13.9,30.10,ENE,67,0.0,0.0,24,0.00,CLR,FEW,0.00,0.0,WeatherDisplay:10.37,2013-04-18 05:25:00,
2013-04-17 22:26:00,49.2,13.9,30.10,ENE,76,0.0,0.0,24,0.00,CLR,FEW,0.00,0.0,WeatherDisplay:10.37,2013-04-18 05:26:00,
2013-04-17 22:28:00,49.4,14.1,30.10,ENE,76,0.0,0.0,24,0.00,CLR,FEW,0.00,0.0,WeatherDisplay:10.37,2013-04-18 05:28:00,
2013-04-17 22:30:00,49.5,14.1,30.10,ENE,76,0.0,0.0,24,0.00,CLR,FEW,0.00,0.0,WeatherDisplay:10.37,2013-04-18 05:30:00,
2013-04-17 22:31:00,49.4,15.0,30.10,ENE,76,0.0,0.0,25,0.00,CLR,FEW,0.00,0.0,WeatherDisplay:10.37,2013-04-18 05:31:00,
2013-04-17 22:33:00,48.8,14.5,30.10,ENE,76,0.0,0.0,25,0.00,CLR,FEW,0.00,0.0,WeatherDisplay:10.37,2013-04-18 05:33:00,
2013-04-17 22:35:00,48.5,14.2,30.10,ENE,76,0.0,0.0,25,0.00,CLR,FEW,0.00,0.0,WeatherDisplay:10.37,2013-04-18 05:35:00,
2013-04-17 22:36:00,48.3,14.1,30.10,East,98,0.0,0.0,25,0.00,CLR,FEW,0.00,0.0,WeatherDisplay:10.37,2013-04-18 05:36:00,
2013-04-17 22:37:00,48.2,14.0,30.10,East,98,0.0,0.0,25,0.00,CLR,FEW,0.00,0.0,WeatherDisplay:10.37,2013-04-18 05:37:00,
2013-04-17 22:39:00,48.2,13.0,30.10,East,98,0.0,0.0,24,0.00,CLR,FEW,0.00,0.0,WeatherDisplay:10.37,2013-04-18 05:39:00,
2013-04-17 22:40:00,48.0,12.9,30.10,ENE,71,0.0,0.0,24,0.00,CLR,FEW,0.00,0.0,WeatherDisplay:10.37,2013-04-18 05:40:00,
2013-04-17 22:42:00,48.0,13.8,30.10,East,84,0.0,0.0,25,0.00,CLR,FEW,0.00,0.0,WeatherDisplay:10.37,2013-04-18 05:42:00,
2013-04-17 22:43:00,48.2,13.0,30.10,East,84,0.0,0.0,24,0.00,CLR,FEW,0.00,0.0,WeatherDisplay:10.37,2013-04-18 05:43:00,
2013-04-17 22:44:00,48.2,13.0,30.10,East,84,0.0,0.0,24,0.00,CLR,FEW,0.00,0.0,WeatherDisplay:10.37,2013-04-18 05:44:00,
2013-04-17 22:45:00,48.3,14.1,30.10,NE,47,0.0,0.0,25,0.00,CLR,FEW,0.00,0.0,WeatherDisplay:10.37,2013-04-18 05:45:00,
2013-04-17 22:46:00,48.3,14.1,30.10,NE,47,0.0,0.0,25,0.00,CLR,FEW,0.00,0.0,WeatherDisplay:10.37,2013-04-18 05:46:00,
2013-04-17 22:48:00,48.6,14.3,30.10,NE,47,0.0,0.0,25,0.00,CLR,FEW,0.00,0.0,WeatherDisplay:10.37,2013-04-18 05:48:00,
2013-04-17 22:49:00,48.6,14.3,30.10,NE,47,0.0,0.0,25,0.00,CLR,FEW,0.00,0.0,WeatherDisplay:10.37,2013-04-18 05:49:00,
2013-04-17 22:51:00,48.6,13.4,30.10,NE,47,0.0,0.0,24,0.00,CLR,FEW,0.00,0.0,WeatherDisplay:10.37,2013-04-18 05:51:00,
2013-04-17 22:52:00,48.6,13.4,30.10,NE,47,0.0,0.0,24,0.00,CLR,FEW,0.00,0.0,WeatherDisplay:10.37,2013-04-18 05:52:00,
2013-04-17 22:54:00,48.6,13.4,30.10,East,83,0.0,0.0,24,0.00,CLR,FEW,0.00,0.0,WeatherDisplay:10.37,2013-04-18 05:54:00,
2013-04-17 22:57:00,48.6,13.4,30.10,East,84,0.0,0.0,24,0.00,CLR,FEW,0.00,0.0,WeatherDisplay:10.37,2013-04-18 05:57:00,
2013-04-17 22:58:00,48.8,12.6,30.10,East,84,0.0,0.0,23,0.00,CLR,FEW,0.00,0.0,WeatherDisplay:10.37,2013-04-18 05:58:00,
2013-04-17 22:59:00,48.8,12.6,30.10,East,84,0.0,0.0,23,0.00,CLR,FEW,0.00,0.0,WeatherDisplay:10.37,2013-04-18 05:59:00,
2013-04-17 23:00:00,48.8,12.6,30.10,SE,127,0.0,0.0,23,0.00,CLR,FEW,0.00,0.0,WeatherDisplay:10.37,2013-04-18 06:00:00,
2013-04-17 23:02:00,48.9,12.7,30.10,ESE,120,0.0,0.0,23,0.00,CLR,FEW,0.00,0.0,WeatherDisplay:10.37,2013-04-18 06:02:00,
2013-04-17 23:04:00,49.2,12.9,30.10,ENE,57,0.0,0.0,23,0.00,CLR,FEW,0.00,0.0,WeatherDisplay:10.37,2013-04-18 06:04:00,
2013-04-17 23:05:00,49.4,12.1,30.10,ESE,102,0.0,0.0,22,0.00,CLR,FEW,0.00,0.0,WeatherDisplay:10.37,2013-04-18 06:05:00,
2013-04-17 23:06:00,49.4,12.1,30.10,ESE,102,0.0,0.0,22,0.00,CLR,FEW,0.00,0.0,WeatherDisplay:10.37,2013-04-18 06:06:00,
2013-04-17 23:07:00,49.4,12.1,30.10,East,100,0.0,0.0,22,0.00,CLR,FEW,0.00,0.0,WeatherDisplay:10.37,2013-04-18 06:07:00,
2013-04-17 23:10:00,49.2,12.9,30.10,East,100,0.0,0.0,23,0.00,CLR,FEW,0.00,0.0,WeatherDisplay:10.37,2013-04-18 06:10:00,
2013-04-17 23:11:00,49.2,11.9,30.10,East,100,0.0,0.0,22,0.00,CLR,FEW,0.00,0.0,WeatherDisplay:10.37,2013-04-18 06:11:00,
2013-04-17 23:12:00,49.1,11.8,30.10,East,98,0.0,0.0,22,0.00,CLR,FEW,0.00,0.0,WeatherDisplay:10.37,2013-04-18 06:12:00,
2013-04-17 23:13:00,48.9,11.7,30.10,East,85,0.0,0.0,22,0.00,CLR,FEW,0.00,0.0,WeatherDisplay:10.37,2013-04-18 06:13:00,
2013-04-17 23:15:00,48.8,11.6,30.10,East,85,0.0,0.0,22,0.00,CLR,FEW,0.00,0.0,WeatherDisplay:10.37,2013-04-18 06:15:00,
2013-04-17 23:16:00,48.6,11.4,30.10,East,86,0.0,0.0,22,0.00,CLR,FEW,0.00,0.0,WeatherDisplay:10.37,2013-04-18 06:16:00,
2013-04-17 23:18:00,48.5,11.3,30.10,East,94,0.0,0.0,22,0.00,CLR,FEW,0.00,0.0,WeatherDisplay:10.37,2013-04-18 06:18:00,
2013-04-17 23:19:00,48.5,12.3,30.10,East,92,0.0,0.0,23,0.00,CLR,FEW,0.00,0.0,WeatherDisplay:10.37,2013-04-18 06:19:00,
2013-04-17 23:22:00,48.5,12.3,30.10,ENE,76,0.0,0.0,23,0.00,CLR,FEW,0.00,0.0,WeatherDisplay:10.37,2013-04-18 06:22:00,
2013-04-17 23:23:00,48.6,12.4,30.10,ENE,78,0.0,0.0,23,0.00,CLR,FEW,0.00,0.0,WeatherDisplay:10.37,2013-04-18 06:23:00,
2013-04-17 23:24:00,48.6,12.4,30.10,ENE,78,0.0,0.0,23,0.00,CLR,FEW,0.00,0.0,WeatherDisplay:10.37,2013-04-18 06:24:00,
2013-04-17 23:27:00,48.5,12.3,30.10,ENE,78,0.0,0.0,23,0.00,CLR,FEW,0.00,0.0,WeatherDisplay:10.37,2013-04-18 06:27:00,
2013-04-17 23:28:00,48.3,12.2,30.10,East,96,0.0,0.0,23,0.00,CLR,FEW,0.00,0.0,WeatherDisplay:10.37,2013-04-18 06:28:00,
2013-04-17 23:29:00,48.3,12.2,30.10,East,91,0.0,0.0,23,0.00,CLR,FEW,0.00,0.0,WeatherDisplay:10.37,2013-04-18 06:29:00,
2013-04-17 23:30:00,48.3,12.2,30.10,East,80,0.0,0.0,23,0.00,CLR,FEW,0.00,0.0,WeatherDisplay:10.37,2013-04-18 06:30:00,
2013-04-17 23:32:00,48.3,12.2,30.11,NE,48,0.0,0.0,23,0.00,CLR,FEW,0.00,0.0,WeatherDisplay:10.37,2013-04-18 06:32:00,
2013-04-17 23:33:00,48.3,12.2,30.11,NE,49,0.0,0.0,23,0.00,CLR,FEW,0.00,0.0,WeatherDisplay:10.37,2013-04-18 06:33:00,
2013-04-17 23:34:00,48.3,12.2,30.11,NE,50,0.0,0.0,23,0.00,CLR,FEW,0.00,0.0,WeatherDisplay:10.37,2013-04-18 06:34:00,
2013-04-17 23:35:00,48.3,12.2,30.11,ENE,71,0.0,0.0,23,0.00,CLR,FEW,0.00,0.0,WeatherDisplay:10.37,2013-04-18 06:35:00,
2013-04-17 23:36:00,48.3,12.2,30.11,ENE,71,0.0,0.0,23,0.00,CLR,FEW,0.00,0.0,WeatherDisplay:10.37,2013-04-18 06:36:00,
2013-04-17 23:38:00,48.3,12.2,30.11,NE,50,0.0,0.0,23,0.00,CLR,FEW,0.00,0.0,WeatherDisplay:10.37,2013-04-18 06:38:00,
2013-04-17 23:39:00,48.5,12.3,30.11,ENE,65,0.0,0.0,23,0.00,CLR,FEW,0.00,0.0,WeatherDisplay:10.37,2013-04-18 06:39:00,
2013-04-17 23:40:00,48.5,12.3,30.11,ENE,75,0.0,0.0,23,0.00,CLR,FEW,0.00,0.0,WeatherDisplay:10.37,2013-04-18 06:40:00,
2013-04-17 23:41:00,48.3,13.1,30.11,SE,133,0.0,0.0,24,0.00,CLR,FEW,0.00,0.0,WeatherDisplay:10.37,2013-04-18 06:41:00,
2013-04-17 23:44:00,48.3,12.2,30.11,ESE,103,0.0,0.0,23,0.00,CLR,FEW,0.00,0.0,WeatherDisplay:10.37,2013-04-18 06:44:00,
2013-04-17 23:46:00,48.6,11.4,30.11,East,94,0.0,0.0,22,0.00,CLR,FEW,0.00,0.0,WeatherDisplay:10.37,2013-04-18 06:46:00,
2013-04-17 23:47:00,48.6,11.4,30.11,East,94,0.0,0.0,22,0.00,CLR,FEW,0.00,0.0,WeatherDisplay:10.37,2013-04-18 06:47:00,
2013-04-17 23:49:00,48.6,11.4,30.11,East,93,0.0,0.0,22,0.00,CLR,FEW,0.00,0.0,WeatherDisplay:10.37,2013-04-18 06:49:00,
2013-04-17 23:50:00,48.6,11.4,30.11,East,101,0.0,0.0,22,0.00,CLR,FEW,0.00,0.0,WeatherDisplay:10.37,2013-04-18 06:50:00,
2013-04-17 23:52:00,48.5,12.3,30.11,East,93,0.0,0.0,23,0.00,CLR,FEW,0.00,0.0,WeatherDisplay:10.37,2013-04-18 06:52:00,
2013-04-17 23:54:00,48.5,12.3,30.11,East,93,0.0,0.0,23,0.00,CLR,FEW,0.00,0.0,WeatherDisplay:10.37,2013-04-18 06:54:00,
2013-04-17 23:55:00,48.5,12.3,30.11,East,93,0.0,0.0,23,0.00,CLR,FEW,0.00,0.0,WeatherDisplay:10.37,2013-04-18 06:55:00,
2013-04-17 23:56:00,48.6,11.4,30.11,NE,40,0.0,0.0,22,0.00,CLR,FEW,0.00,0.0,WeatherDisplay:10.37,2013-04-18 06:56:00,
2013-04-17 23:58:00,48.8,11.6,30.11,ENE,59,0.0,0.0,22,0.00,CLR,FEW,0.00,0.0,WeatherDisplay:10.37,2013-04-18 06:58:00,
2013-04-17 23:59:00,48.8,11.6,30.11,ENE,59,0.0,0.0,22,0.00,CLR,FEW,0.00,0.0,WeatherDisplay:10.37,2013-04-18 06:59:00,